Sigfox identifier Datetime Temperature Humidity SNR
003B5CE9 2019-04-12 12:50:28 21.2 18 18.7
003B5CE9 2019-04-12 12:17:57 21 17 18.9
003B5CE9 2019-04-12 11:45:21 21.1 17 18.9
003B5CE9 2019-04-12 11:12:47 21.1 18 19
003B5CE9 2019-04-12 10:40:15 21 18 18.9
003B5CE9 2019-04-12 10:07:42 21 18 18.7
003B5CE9 2019-04-12 09:35:14 20.9 18 18.8
003B5CE9 2019-04-12 09:02:39 20.9 18 18.8
003B5CE9 2019-04-12 08:30:04 20.9 18 19.1
003B5CE9 2019-04-12 07:57:30 21.1 18 19.3
003B5CE9 2019-04-12 07:56:16 20.9 18 19.3
003B5CE9 2019-04-12 07:23:41 20.9 18 19.3
003B5CE9 2019-04-12 06:51:05 20.9 18 19.3
003B5CE9 2019-04-12 06:18:30 20.9 18 19.1
003B5CE9 2019-04-12 05:45:57 20.9 18 18.9
003B5CE9 2019-04-12 05:13:23 20.9 18 19
003B5CE9 2019-04-12 04:40:51 21 18 19
003B5CE9 2019-04-12 04:08:18 21 18 19
003B5CE9 2019-04-12 03:35:43 21 18 18.9
003B5CE9 2019-04-12 03:03:07 21 18 18.9
003B5CE9 2019-04-12 02:30:34 21.1 18 18.7
003B5CE9 2019-04-12 01:58:02 21.1 18 18.7
003B5CE9 2019-04-12 01:25:26 21.2 18 15.5
003B5CE9 2019-04-12 00:52:52 21.2 18 15.5
003B5CE9 2019-04-12 00:20:21 21.3 18 15.3
003B5CE9 2019-04-11 23:47:44 21.4 18 15.2
003B5CE9 2019-04-11 23:15:10 21.4 18 14.6
003B5CE9 2019-04-11 22:42:38 21.4 18 15
003B5CE9 2019-04-11 22:10:06 21.4 18 18.5
003B5CE9 2019-04-11 21:37:34 21.4 18 18.5
003B5CE9 2019-04-11 21:05:02 21.5 18 18.5
003B5CE9 2019-04-11 20:32:29 21.4 18 18.5
003B5CE9 2019-04-11 19:59:59 21.4 17 18.5
003B5CE9 2019-04-11 19:27:26 21.3 17 18.3
003B5CE9 2019-04-11 18:54:51 21.2 17 17.9
003B5CE9 2019-04-11 18:22:19 21.2 17 17.9
003B5CE9 2019-04-11 17:49:47 21.2 17 17.8
003B5CE9 2019-04-11 17:17:16 21.2 17 17.8
003B5CE9 2019-04-11 16:44:41 21.3 18 17.8
003B5CE9 2019-04-11 16:12:08 21.3 18 17.8
003B5CE9 2019-04-11 15:39:36 21.2 18 17.7
003B5CE9 2019-04-11 15:07:02 21.1 18 17.7
003B5CE9 2019-04-11 14:01:57 21 18 17.8
003B5CE9 2019-04-11 12:56:53 20.8 18 17.8
003B5CE9 2019-04-11 11:19:09 20.9 18 17.8
003B5CE9 2019-04-11 10:46:38 20.8 18 17.8
003B5CE9 2019-04-11 10:14:05 20.8 18 17.8
003B5CE9 2019-04-11 09:41:33 20.7 18 17.7
003B5CE9 2019-04-11 09:09:01 20.7 18 17.7
003B5CE9 2019-04-11 08:36:25 20.7 18 17.7
003B5CE9 2019-04-11 08:03:54 20.7 18 17.7
003B5CE9 2019-04-11 07:31:19 20.8 18 17.7
003B5CE9 2019-04-11 06:58:50 20.8 19 17.5
003B5CE9 2019-04-11 06:26:18 20.8 19 13.1
003B5CE9 2019-04-11 05:53:41 20.8 19 13.2
003B5CE9 2019-04-11 05:21:08 21 18 13.2
003B5CE9 2019-04-11 05:19:53 20.8 19 13.2
003B5CE9 2019-04-11 04:47:18 20.8 19 13.5
003B5CE9 2019-04-11 04:14:44 20.8 19 13.1
003B5CE9 2019-04-11 03:09:39 20.8 19 13.2
003B5CE9 2019-04-11 02:37:04 20.9 19 13.1
003B5CE9 2019-04-11 02:04:31 20.9 19 14
003B5CE9 2019-04-11 01:31:58 20.9 19 14.1
003B5CE9 2019-04-11 00:59:25 20.9 19 14.4
003B5CE9 2019-04-11 00:26:51 21 19 14.7
003B5CE9 2019-04-10 23:54:18 21 19 14.9
003B5CE9 2019-04-10 23:21:44 21 19 14.8
003B5CE9 2019-04-10 22:49:11 21 19 15.6
003B5CE9 2019-04-10 22:16:37 21 19 16.2
003B5CE9 2019-04-10 21:44:04 21 19 16.6
003B5CE9 2019-04-10 21:11:29 21 19 16.6
003B5CE9 2019-04-10 20:38:58 21 19 16.7
003B5CE9 2019-04-10 20:06:23 20.9 19 16.9
003B5CE9 2019-04-10 19:33:49 20.8 19 16.9
003B5CE9 2019-04-10 19:01:19 20.8 19 17.3
003B5CE9 2019-04-10 18:28:43 20.8 19 17.6
003B5CE9 2019-04-10 17:56:07 20.8 19 17.6
003B5CE9 2019-04-10 17:23:35 20.8 20 17.3
003B5CE9 2019-04-10 16:51:00 20.8 20 17.4
003B5CE9 2019-04-10 16:18:27 20.8 20 17.8
003B5CE9 2019-04-10 15:13:22 20.8 20 17.8
003B5CE9 2019-04-10 14:40:49 20.9 20 18.1
003B5CE9 2019-04-10 13:35:47 20.9 21 18.1
003B5CE9 2019-04-10 13:03:12 20.9 21 18.5
003B5CE9 2019-04-10 12:30:42 20.8 21 18.7
003B5CE9 2019-04-10 11:25:30 20.7 21 18.7
003B5CE9 2019-04-10 10:52:53 20.8 22 18.6
003B5CE9 2019-04-10 10:20:17 20.7 22 18.8
003B5CE9 2019-04-10 09:47:40 20.7 22 18.8
003B5CE9 2019-04-10 09:15:07 20.6 23 18.9
003B5CE9 2019-04-10 08:42:29 20.6 23 19.1
003B5CE9 2019-04-10 08:09:54 20.6 23 19.4
003B5CE9 2019-04-10 07:37:19 20.6 24 19.4
003B5CE9 2019-04-10 07:04:46 20.6 24 19.3
003B5CE9 2019-04-10 06:32:10 20.6 24 19.3
003B5CE9 2019-04-10 05:59:36 20.6 24 19.6
003B5CE9 2019-04-10 05:27:02 20.6 24 19.5
003B5CE9 2019-04-10 04:54:27 20.6 24 19.4
003B5CE9 2019-04-10 04:21:52 20.6 24 19.5
003B5CE9 2019-04-10 03:49:17 20.6 25 19.3
003B5CE9 2019-04-10 03:16:42 20.7 25 19.2
003B5CE9 2019-04-10 02:44:08 20.7 25 19.3
003B5CE9 2019-04-10 02:10:58 20.7 26 19.4
003B5CE9 2019-04-10 01:38:24 20.7 26 19.1
003B5CE9 2019-04-10 01:05:52 20.7 26 19.1
003B5CE9 2019-04-10 00:33:17 20.7 26 19
003B5CE9 2019-04-10 00:00:44 20.7 26 18.9
003B5CE9 2019-04-09 23:28:11 20.7 27 18.6
003B5CE9 2019-04-09 22:55:39 20.8 27 18.4
003B5CE9 2019-04-09 22:23:05 20.8 27 18.2
003B5CE9 2019-04-09 21:50:30 20.8 27 18.2
003B5CE9 2019-04-09 21:17:58 20.8 27 18.1
003B5CE9 2019-04-09 20:45:25 20.8 27 18.1
003B5CE9 2019-04-09 20:12:52 20.7 27 17.9
003B5CE9 2019-04-09 19:40:18 20.7 27 17.6
003B5CE9 2019-04-09 19:07:45 20.7 27 17.4
003B5CE9 2019-04-09 18:35:13 20.7 27 17
003B5CE9 2019-04-09 18:02:39 20.8 27 17.1
003B5CE9 2019-04-09 17:30:08 20.8 27 16.9
003B5CE9 2019-04-09 16:57:40 20.8 27 17
003B5CE9 2019-04-09 16:25:02 20.9 27 17.1
003B5CE9 2019-04-09 15:52:29 20.9 27 17
003B5CE9 2019-04-09 15:19:58 20.9 26 17.3
003B5CE9 2019-04-09 14:47:21 20.9 26 17.4
003B5CE9 2019-04-09 14:14:48 20.9 26 17.2
003B5CE9 2019-04-09 13:42:17 20.9 26 17.2
003B5CE9 2019-04-09 13:09:42 20.9 26 17.5
003B5CE9 2019-04-09 12:37:07 20.9 26 17.6
003B5CE9 2019-04-09 12:04:34 20.9 26 17.7
003B5CE9 2019-04-09 11:32:02 20.9 26 17.4
003B5CE9 2019-04-09 10:59:27 20.8 26 17.7
003B5CE9 2019-04-09 09:54:22 20.8 26 18
003B5CE9 2019-04-09 09:21:48 20.8 26 18.2
003B5CE9 2019-04-09 08:49:13 20.8 25 18.2
003B5CE9 2019-04-09 08:16:37 20.8 25 18.3
003B5CE9 2019-04-09 07:44:03 20.7 25 18.2
003B5CE9 2019-04-09 07:11:29 20.8 25 18.4
003B5CE9 2019-04-09 06:38:54 20.8 25 18.3
003B5CE9 2019-04-09 06:06:18 20.8 25 20.2
003B5CE9 2019-04-09 05:33:43 20.8 25 20.2
003B5CE9 2019-04-09 05:01:08 20.8 25 20
003B5CE9 2019-04-09 04:28:33 20.8 25 21.4
003B5CE9 2019-04-09 03:55:59 20.8 25 21.4
003B5CE9 2019-04-09 03:23:25 20.8 25 21.4
003B5CE9 2019-04-09 02:18:16 20.8 26 21.5
003B5CE9 2019-04-09 01:45:42 20.9 26 21.4
003B5CE9 2019-04-09 01:13:08 20.8 26 21.2
003B5CE9 2019-04-09 00:40:34 20.9 26 21.2
003B5CE9 2019-04-09 00:08:01 20.9 26 21.1
003B5CE9 2019-04-08 23:35:30 20.9 26 21
003B5CE9 2019-04-08 23:02:24 20.9 26 21
003B5CE9 2019-04-08 22:29:50 20.9 26 21
003B5CE9 2019-04-08 21:57:17 20.9 26 20.8
003B5CE9 2019-04-08 21:24:45 20.9 26 20.7
003B5CE9 2019-04-08 20:52:10 20.9 26 20.5
003B5CE9 2019-04-08 20:19:36 21 26 20.5
003B5CE9 2019-04-08 19:47:03 21 26 20.4
003B5CE9 2019-04-08 19:14:31 20.9 26 20.5
003B5CE9 2019-04-08 18:41:55 20.9 26 20.3
003B5CE9 2019-04-08 18:09:21 20.9 26 20.3
003B5CE9 2019-04-08 17:36:48 20.9 26 20.3
003B5CE9 2019-04-08 17:04:15 20.9 26 18.4
003B5CE9 2019-04-08 16:31:42 21 26 18.1
003B5CE9 2019-04-08 15:59:08 21 26 18
003B5CE9 2019-04-08 15:26:34 21 26 13.8
003B5CE9 2019-04-08 14:54:01 21 26 13.4
003B5CE9 2019-04-08 14:21:28 21 26 12.8
003B5CE9 2019-04-08 13:48:55 21.1 26 11.9
003B5CE9 2019-04-08 13:16:21 21 26 12
003B5CE9 2019-04-08 12:43:47 20.9 25 11.9
003B5CE9 2019-04-08 12:11:15 20.8 25 12
003B5CE9 2019-04-08 11:38:43 20.7 25 12.4
003B5CE9 2019-04-08 11:06:10 20.7 25 12.5
003B5CE9 2019-04-08 10:33:35 20.7 24 12.6
003B5CE9 2019-04-08 10:01:02 20.6 24 12.4
003B5CE9 2019-04-08 09:28:29 20.5 24 12.4
003B5CE9 2019-04-08 08:55:58 20.4 24 12.4
003B5CE9 2019-04-08 08:23:25 20.4 23 12.2
003B5CE9 2019-04-08 07:50:53 20.4 23 12.4
003B5CE9 2019-04-08 07:18:17 20.4 23 12.4
003B5CE9 2019-04-08 06:45:44 20.4 23 17.6
003B5CE9 2019-04-08 06:13:12 20.4 23 17.6
003B5CE9 2019-04-08 05:40:38 20.5 23 17.5
003B5CE9 2019-04-08 05:08:07 20.5 23 17.4
003B5CE9 2019-04-08 04:35:31 20.5 23 17.4
003B5CE9 2019-04-08 04:02:55 20.5 23 17.4
003B5CE9 2019-04-08 03:30:22 20.6 23 17.3
003B5CE9 2019-04-08 02:57:48 20.6 23 17.3
003B5CE9 2019-04-08 02:25:16 20.6 23 17.4
003B5CE9 2019-04-08 01:52:43 20.6 23 17.4
003B5CE9 2019-04-08 00:47:34 20.6 23 17.4
003B5CE9 2019-04-08 00:15:02 20.6 23 17.3
003B5CE9 2019-04-07 23:42:27 20.7 22 17.4
003B5CE9 2019-04-07 23:09:57 20.7 22 17.4
003B5CE9 2019-04-07 22:37:20 20.7 22 17.3
003B5CE9 2019-04-07 22:04:45 20.8 22 17.3
003B5CE9 2019-04-07 21:32:15 20.9 22 17.2
003B5CE9 2019-04-07 20:59:39 20.9 22 17.2
003B5CE9 2019-04-07 20:27:06 21.2 22 17.1
003B5CE9 2019-04-07 18:48:14 21 22 17.1
003B5CE9 2019-04-07 18:15:41 21 22 17.1
003B5CE9 2019-04-07 17:43:09 21 22 17.1
003B5CE9 2019-04-07 17:10:34 21 22 17.1
003B5CE9 2019-04-07 16:38:02 20.9 22 17.1
003B5CE9 2019-04-07 16:05:29 20.8 22 17.1
003B5CE9 2019-04-07 15:32:50 20.8 22 10.7
003B5CE9 2019-04-07 15:00:18 20.7 22 10.8
003B5CE9 2019-04-07 14:27:47 20.6 21 10.9
003B5CE9 2019-04-07 13:55:11 20.6 21 17.2
003B5CE9 2019-04-07 13:22:41 20.5 21 17.2
003B5CE9 2019-04-07 12:50:05 20.5 21 17.2
003B5CE9 2019-04-07 12:17:30 20.5 21 17.2
003B5CE9 2019-04-07 11:45:00 20.5 21 17.2
003B5CE9 2019-04-07 11:12:21 20.5 21 17.2
003B5CE9 2019-04-07 10:39:47 20.5 21 17.1
003B5CE9 2019-04-07 10:07:14 20.5 21 17.1
003B5CE9 2019-04-07 09:34:40 20.5 21 17.1
003B5CE9 2019-04-07 09:02:05 20.5 21 17.2
003B5CE9 2019-04-07 08:29:29 20.5 21 17.2
003B5CE9 2019-04-07 07:24:21 20.6 21 17.3
003B5CE9 2019-04-07 06:51:46 20.6 21 17.2
003B5CE9 2019-04-07 06:19:13 20.6 21 17.3
003B5CE9 2019-04-07 05:46:39 20.7 21 17.3
003B5CE9 2019-04-07 05:14:04 20.7 21 17.3
003B5CE9 2019-04-07 04:41:33 20.7 21 17.3
003B5CE9 2019-04-07 04:09:00 20.8 21 17.3
003B5CE9 2019-04-07 03:36:26 20.8 21 17.3
003B5CE9 2019-04-07 03:03:52 20.8 21 17.3
003B5CE9 2019-04-07 02:31:19 20.9 21 17.3
003B5CE9 2019-04-07 01:58:46 20.9 21 17.3
003B5CE9 2019-04-07 01:26:13 21 21 17.3
003B5CE9 2019-04-07 00:53:40 21 21 17.3
003B5CE9 2019-04-07 00:21:06 21.1 21 11.5
003B5CE9 2019-04-06 23:48:32 21.1 21 11.6
003B5CE9 2019-04-06 23:15:59 21.2 21 11.5
003B5CE9 2019-04-06 22:43:25 21.2 21 11.4
003B5CE9 2019-04-06 22:10:54 21.3 21 11.5
003B5CE9 2019-04-06 21:38:19 21.3 21 11.6
003B5CE9 2019-04-06 21:05:51 21.4 21 11.6
003B5CE9 2019-04-06 20:33:16 21.4 21 11.7
003B5CE9 2019-04-06 20:00:43 21.4 21 11.6
003B5CE9 2019-04-06 19:28:10 21.4 21 11.4
003B5CE9 2019-04-06 18:55:39 21.4 21 11.3
003B5CE9 2019-04-06 18:23:08 21.4 21 11
003B5CE9 2019-04-06 17:50:34 21.3 21 10.6
003B5CE9 2019-04-06 17:17:31 21.3 21 10.4
003B5CE9 2019-04-06 16:44:57 21.2 21 10.5
003B5CE9 2019-04-06 16:12:24 21 21 10.5
003B5CE9 2019-04-06 15:39:51 20.9 21 10.6
003B5CE9 2019-04-06 15:07:18 20.7 21 10.4
003B5CE9 2019-04-06 14:34:45 20.7 21 10.4
003B5CE9 2019-04-06 14:02:11 20.7 21 10.4
003B5CE9 2019-04-06 13:29:37 20.7 21 11
003B5CE9 2019-04-06 12:57:04 20.6 21 10.9
003B5CE9 2019-04-06 12:24:29 20.6 21 10.8
003B5CE9 2019-04-06 11:51:55 20.6 20 10.7
003B5CE9 2019-04-06 11:19:21 20.6 20 10.8
003B5CE9 2019-04-06 10:46:47 20.6 20 10.8
003B5CE9 2019-04-06 09:41:39 20.6 20 10.8
003B5CE9 2019-04-06 09:09:07 20.6 20 11
003B5CE9 2019-04-06 08:36:36 20.6 20 10.9
003B5CE9 2019-04-06 08:03:59 20.7 20 11.1
003B5CE9 2019-04-06 07:31:28 20.7 20 11
003B5CE9 2019-04-06 06:58:52 20.7 20 11.2
003B5CE9 2019-04-06 06:26:18 20.8 20 11.1
003B5CE9 2019-04-06 05:53:46 20.8 20 11.1
003B5CE9 2019-04-06 05:21:12 20.9 20 11.2
003B5CE9 2019-04-06 04:48:40 20.9 20 12.1
003B5CE9 2019-04-06 03:43:31 21 20 12.2
003B5CE9 2019-04-06 03:10:58 21 20 12.1
003B5CE9 2019-04-06 02:38:22 21.1 20 12
003B5CE9 2019-04-06 02:05:49 21.1 20 12.2
003B5CE9 2019-04-06 01:33:15 21.2 20 12.5
003B5CE9 2019-04-06 01:00:42 21.3 20 13.9
003B5CE9 2019-04-05 23:55:39 21.4 20 14.1
003B5CE9 2019-04-05 23:23:01 21.5 19 14.1
003B5CE9 2019-04-05 22:50:29 21.6 19 14.1
003B5CE9 2019-04-05 22:17:56 21.7 19 14.3
003B5CE9 2019-04-05 21:45:23 21.9 19 14.2
003B5CE9 2019-04-05 21:12:47 22 19 14.6
003B5CE9 2019-04-05 20:40:15 21.9 19 14.6
003B5CE9 2019-04-05 20:07:41 21.9 19 14.6
003B5CE9 2019-04-05 19:35:06 22 19 15
003B5CE9 2019-04-05 19:02:36 21.9 20 15.3
003B5CE9 2019-04-05 17:57:26 21.7 20 15.3
003B5CE9 2019-04-05 17:24:53 21.7 20 15.3
003B5CE9 2019-04-05 16:52:20 21.7 20 15.3
003B5CE9 2019-04-05 16:19:47 21.8 21 15.6
003B5CE9 2019-04-05 15:47:14 21.6 21 15.8
003B5CE9 2019-04-05 15:14:39 21.6 21 16
003B5CE9 2019-04-05 14:42:07 21.7 21 16
003B5CE9 2019-04-05 13:35:45 21.3 21 16
003B5CE9 2019-04-05 13:03:11 21.3 22 16
003B5CE9 2019-04-05 11:58:03 21.3 22 16.2
003B5CE9 2019-04-05 11:25:28 21.3 22 16.4
003B5CE9 2019-04-05 10:20:20 21.2 21 16.5
003B5CE9 2019-04-05 09:47:46 21.1 20 16.6
003B5CE9 2019-04-05 09:15:12 21 20 16.4
003B5CE9 2019-04-05 08:42:39 21 19 16.5
003B5CE9 2019-04-05 08:10:06 21 19 16.5
003B5CE9 2019-04-05 07:37:30 21.1 19 16.5
003B5CE9 2019-04-05 07:04:56 21.1 19 16.2
003B5CE9 2019-04-05 06:32:26 21.1 19 16.2
003B5CE9 2019-04-05 05:59:51 21.2 19 16.2
003B5CE9 2019-04-05 05:27:18 21.2 19 16.2
003B5CE9 2019-04-05 04:54:42 21.2 19 16.1
003B5CE9 2019-04-05 04:22:10 21.2 19 16.3
003B5CE9 2019-04-05 03:49:35 21.3 19 16.3
003B5CE9 2019-04-05 03:17:01 21.3 19 16
003B5CE9 2019-04-05 02:44:28 21.3 19 16.1
003B5CE9 2019-04-05 02:11:57 21.4 19 16.3
003B5CE9 2019-04-05 01:39:22 21.4 19 16.3
003B5CE9 2019-04-05 01:06:50 21.4 19 16
003B5CE9 2019-04-05 00:34:16 21.5 19 15.8
003B5CE9 2019-04-05 00:01:43 21.5 19 15.6
003B5CE9 2019-04-04 23:29:10 21.5 19 15.7
003B5CE9 2019-04-04 22:56:38 21.6 19 15.4
003B5CE9 2019-04-04 22:24:06 21.6 18 15.7
003B5CE9 2019-04-04 21:51:32 21.6 18 15.5
003B5CE9 2019-04-04 21:19:02 21.6 18 15.3
003B5CE9 2019-04-04 20:46:27 21.6 18 15
003B5CE9 2019-04-04 20:13:55 21.6 18 14.9
003B5CE9 2019-04-04 19:41:24 21.6 18 14.4
003B5CE9 2019-04-04 19:08:50 21.5 18 14.4
003B5CE9 2019-04-04 18:36:17 21.5 18 14.7
003B5CE9 2019-04-04 18:03:49 21.6 18 14.6
003B5CE9 2019-04-04 17:31:14 21.6 19 14.8
003B5CE9 2019-04-04 16:58:39 21.6 19 14.9
003B5CE9 2019-04-04 16:26:07 21.6 19 15.1
003B5CE9 2019-04-04 15:53:33 21.5 20 15.6
003B5CE9 2019-04-04 15:21:04 21.4 20 15.4
003B5CE9 2019-04-04 14:48:28 21.3 20 15
003B5CE9 2019-04-04 14:15:54 21.3 20 15.3
003B5CE9 2019-04-04 13:43:22 21.2 20 15.2
003B5CE9 2019-04-04 13:10:51 21.2 20 14.9
003B5CE9 2019-04-04 12:38:19 21.1 20 15
003B5CE9 2019-04-04 12:05:43 21.3 20 14.9
003B5CE9 2019-04-04 11:31:51 21.1 20 15.2
003B5CE9 2019-04-04 10:59:18 21 20 15.2
003B5CE9 2019-04-04 10:26:45 21 20 15.2
003B5CE9 2019-04-04 09:54:11 21 20 15.6
003B5CE9 2019-04-04 09:21:38 21 20 15.3
003B5CE9 2019-04-04 08:49:04 21 20 15.3
003B5CE9 2019-04-04 08:16:30 21 20 15.2
003B5CE9 2019-04-04 07:43:59 21.1 20 15.2
003B5CE9 2019-04-04 07:11:22 21.1 20 14.9
003B5CE9 2019-04-04 06:38:50 21.1 20 15
003B5CE9 2019-04-04 06:06:21 21.1 20 15.1
003B5CE9 2019-04-04 05:33:45 21.2 20 14.9
003B5CE9 2019-04-04 05:01:12 21.2 20 15.4
003B5CE9 2019-04-04 04:28:41 21.2 20 15.5
003B5CE9 2019-04-04 03:56:07 21.2 20 15.6
003B5CE9 2019-04-04 03:23:34 21.3 20 15.6
003B5CE9 2019-04-04 02:50:59 21.3 20 15.3
003B5CE9 2019-04-04 02:18:25 21.3 20 14.9
003B5CE9 2019-04-04 01:45:51 21.4 20 14.8
003B5CE9 2019-04-04 01:13:17 21.5 20 15
003B5CE9 2019-04-04 00:40:45 21.5 20 15.1
003B5CE9 2019-04-04 00:08:12 21.5 20 15.2
003B5CE9 2019-04-03 23:35:41 21.6 19 15.2
003B5CE9 2019-04-03 23:03:10 21.6 19 18.6
003B5CE9 2019-04-03 22:30:32 21.7 19 18.5
003B5CE9 2019-04-03 21:58:04 21.7 19 18.6
003B5CE9 2019-04-03 21:25:28 21.7 19 18.6
003B5CE9 2019-04-03 20:52:55 21.7 19 18.4
003B5CE9 2019-04-03 19:47:49 21.8 19 18.4
003B5CE9 2019-04-03 19:15:20 21.7 19 18.4
003B5CE9 2019-04-03 18:42:42 21.7 19 18.4
003B5CE9 2019-04-03 17:37:39 21.9 20 18.5
003B5CE9 2019-04-03 16:32:28 21.9 21 18.5
003B5CE9 2019-04-03 15:59:56 21.8 21 18.4
003B5CE9 2019-04-03 15:27:20 21.6 21 18.3
003B5CE9 2019-04-03 14:54:48 21.5 21 18.3
003B5CE9 2019-04-03 14:22:12 21.4 21 18
003B5CE9 2019-04-03 13:49:37 21.3 21 17.9
003B5CE9 2019-04-03 13:17:03 21.2 21 17.8
003B5CE9 2019-04-03 12:44:29 21.2 20 17.8
003B5CE9 2019-04-03 12:11:54 21.2 21 20
003B5CE9 2019-04-03 11:39:24 21.2 21 20
003B5CE9 2019-04-03 11:06:47 21.1 21 20.1
003B5CE9 2019-04-03 10:34:15 21.1 21 20
003B5CE9 2019-04-03 09:29:08 20.9 20 19.9
003B5CE9 2019-04-03 08:56:01 20.8 20 20
003B5CE9 2019-04-03 08:23:26 20.8 20 17.9
003B5CE9 2019-04-03 07:50:53 20.9 20 17.9
003B5CE9 2019-04-03 07:18:20 20.9 20 17.8
003B5CE9 2019-04-03 06:45:50 20.9 20 17.7
003B5CE9 2019-04-03 06:13:14 20.9 20 17.7
003B5CE9 2019-04-03 05:40:43 20.9 19 17.8
003B5CE9 2019-04-03 05:08:09 20.9 19 17.8
003B5CE9 2019-04-03 04:35:39 21 19 18
003B5CE9 2019-04-03 04:03:05 21 19 18
003B5CE9 2019-04-03 03:30:32 21 19 18
003B5CE9 2019-04-03 02:58:04 21 19 18.1
003B5CE9 2019-04-03 02:25:28 21.1 19 18.2
003B5CE9 2019-04-03 01:52:55 21.1 19 18.2
003B5CE9 2019-04-03 01:20:26 21.1 19 18.2
003B5CE9 2019-04-03 00:47:51 21.2 19 18.1
003B5CE9 2019-04-03 00:15:18 21.2 19 18.2
003B5CE9 2019-04-02 23:42:45 21.2 19 18.2
003B5CE9 2019-04-02 22:37:41 21.3 19 14.2
003B5CE9 2019-04-02 22:05:12 21.4 19 14.2
003B5CE9 2019-04-02 21:32:40 21.4 18 14.1
003B5CE9 2019-04-02 21:00:07 21.4 18 14.4
003B5CE9 2019-04-02 20:27:32 21.5 18 14.5
003B5CE9 2019-04-02 19:54:59 21.5 18 14
003B5CE9 2019-04-02 19:22:26 21.5 18 13.8
003B5CE9 2019-04-02 18:49:54 21.4 18 13.9
003B5CE9 2019-04-02 18:17:23 21.5 18 14.1
003B5CE9 2019-04-02 17:44:49 21.5 19 14
003B5CE9 2019-04-02 17:12:18 21.6 19 14
003B5CE9 2019-04-02 16:39:44 21.6 20 14.3
003B5CE9 2019-04-02 16:07:12 21.6 21 14.1
003B5CE9 2019-04-02 15:34:42 21.5 22 14.7
003B5CE9 2019-04-02 15:02:08 21.3 22 14.2
003B5CE9 2019-04-02 14:29:35 21.2 22 14.1
003B5CE9 2019-04-02 13:57:02 21 22 14.1
003B5CE9 2019-04-02 13:24:29 20.9 22 13.9
003B5CE9 2019-04-02 12:51:58 20.9 22 13.8
003B5CE9 2019-04-02 12:19:23 20.9 22 13.7
003B5CE9 2019-04-02 11:46:50 20.9 22 13.7
003B5CE9 2019-04-02 11:14:17 20.9 21 14
003B5CE9 2019-04-02 10:41:43 20.9 21 13.9
003B5CE9 2019-04-02 10:09:14 20.8 21 13.9
003B5CE9 2019-04-02 09:36:41 20.8 20 14.4
003B5CE9 2019-04-02 09:04:04 20.8 20 14.4
003B5CE9 2019-04-02 08:31:33 20.8 20 14.5
003B5CE9 2019-04-02 07:58:57 20.7 19 14.5
003B5CE9 2019-04-02 07:26:25 20.8 19 14.7
003B5CE9 2019-04-02 06:53:54 20.8 19 14.7
003B5CE9 2019-04-02 05:48:11 20.8 19 14.9
003B5CE9 2019-04-02 05:15:39 20.8 19 15.1
003B5CE9 2019-04-02 04:43:09 20.8 19 15.3
003B5CE9 2019-04-02 04:10:36 20.8 19 15.6
003B5CE9 2019-04-02 03:38:01 20.8 18 15.7
003B5CE9 2019-04-02 03:05:27 20.9 18 15.5
003B5CE9 2019-04-02 02:32:54 20.9 18 15.5
003B5CE9 2019-04-02 02:00:18 21 18 14.9
003B5CE9 2019-04-02 01:27:44 21 18 15
003B5CE9 2019-04-02 00:55:11 21 18 15
003B5CE9 2019-04-02 00:22:37 21.1 18 15.1
003B5CE9 2019-04-01 23:50:04 21.1 17 15.1
003B5CE9 2019-04-01 23:17:30 21.1 17 15
003B5CE9 2019-04-01 22:44:56 21.2 17 14.8
003B5CE9 2019-04-01 22:12:23 21.2 17 14.8
003B5CE9 2019-04-01 21:39:51 21.2 17 14.6
003B5CE9 2019-04-01 21:07:20 21.3 17 14.4
003B5CE9 2019-04-01 20:34:44 21.3 17 14.2
003B5CE9 2019-04-01 20:02:11 21.3 17 14.2
003B5CE9 2019-04-01 19:29:37 21.3 17 14
003B5CE9 2019-04-01 18:57:04 21.2 17 14.1
003B5CE9 2019-04-01 18:24:33 21.2 17 13.4
003B5CE9 2019-04-01 17:51:57 21.3 17 13.7
003B5CE9 2019-04-01 17:19:26 21.3 18 13.6
003B5CE9 2019-04-01 16:46:51 21.3 18 13.9
003B5CE9 2019-04-01 16:14:20 21.1 19 13.7
003B5CE9 2019-04-01 15:41:44 21 19 13.1
003B5CE9 2019-04-01 15:09:12 20.8 20 12.6
003B5CE9 2019-04-01 14:36:39 20.7 20 12.7
003B5CE9 2019-04-01 14:04:09 20.6 20 12.6
003B5CE9 2019-04-01 13:31:34 20.6 21 13.2
003B5CE9 2019-04-01 12:59:02 20.6 21 13.3
003B5CE9 2019-04-01 12:26:30 20.6 21 13.1
003B5CE9 2019-04-01 11:54:01 20.6 22 13.1
003B5CE9 2019-04-01 11:21:25 20.6 22 13
003B5CE9 2019-04-01 10:48:55 20.6 22 13.1
003B5CE9 2019-04-01 10:16:22 20.6 22 13.2
003B5CE9 2019-04-01 09:43:45 20.6 22 13.9
003B5CE9 2019-04-01 08:06:05 20.5 23 13.9
003B5CE9 2019-04-01 07:33:33 20.6 23 14.7
003B5CE9 2019-04-01 07:00:59 20.6 23 15.5
003B5CE9 2019-04-01 06:28:26 20.6 23 15.8
003B5CE9 2019-04-01 05:55:54 20.6 23 15.6
003B5CE9 2019-04-01 05:23:19 20.6 23 15.6
003B5CE9 2019-04-01 04:50:46 20.5 23 15.5
003B5CE9 2019-04-01 04:18:13 20.6 24 15.8
003B5CE9 2019-04-01 03:45:41 20.6 24 16
003B5CE9 2019-04-01 03:13:12 20.6 24 15.8
003B5CE9 2019-04-01 02:40:03 20.6 24 15.9
003B5CE9 2019-04-01 02:07:30 20.6 24 15.9
003B5CE9 2019-04-01 01:34:57 20.6 24 15.9
003B5CE9 2019-04-01 01:02:24 20.6 24 15.9
003B5CE9 2019-04-01 00:29:51 20.7 25 16
003B5CE9 2019-03-31 23:57:19 20.7 25 16
003B5CE9 2019-03-31 23:24:46 20.8 25 15.8
003B5CE9 2019-03-31 22:52:13 20.8 25 15.8
003B5CE9 2019-03-31 22:19:40 20.8 26 15.8
003B5CE9 2019-03-31 21:47:06 20.9 26 15.9
003B5CE9 2019-03-31 21:14:33 20.9 27 15.9
003B5CE9 2019-03-31 20:41:59 20.9 27 15.9
003B5CE9 2019-03-31 20:09:26 20.9 27 16
003B5CE9 2019-03-31 19:36:55 21 27 15.6
003B5CE9 2019-03-31 19:04:22 20.9 27 15.5
003B5CE9 2019-03-31 18:31:46 20.9 27 15.1
003B5CE9 2019-03-31 17:59:12 20.8 28 14.2
003B5CE9 2019-03-31 17:26:39 20.7 28 13.9
003B5CE9 2019-03-31 16:54:04 20.7 27 13.9
003B5CE9 2019-03-31 16:21:32 20.7 27 14.3
003B5CE9 2019-03-31 15:48:55 20.7 27 14
003B5CE9 2019-03-31 15:16:22 20.7 27 13.9
003B5CE9 2019-03-31 14:43:46 20.7 27 13.9
003B5CE9 2019-03-31 14:11:13 20.7 27 13.5
003B5CE9 2019-03-31 13:38:39 20.7 27 13.6
003B5CE9 2019-03-31 13:06:02 20.7 27 13.6
003B5CE9 2019-03-31 12:33:28 20.7 27 13.6
003B5CE9 2019-03-31 12:00:57 20.7 27 13.7
003B5CE9 2019-03-31 11:28:26 20.7 27 13.5
003B5CE9 2019-03-31 10:55:52 20.7 27 13.6
003B5CE9 2019-03-31 10:23:20 20.7 27 13.6
003B5CE9 2019-03-31 09:50:47 20.6 27 13.5
003B5CE9 2019-03-31 09:18:16 20.6 27 13.5
003B5CE9 2019-03-31 08:45:40 20.6 28 13.4
003B5CE9 2019-03-31 08:13:08 20.6 28 13.4
003B5CE9 2019-03-31 07:40:31 20.7 28 13.3
003B5CE9 2019-03-31 07:07:58 20.7 28 13.2
003B5CE9 2019-03-31 06:35:23 20.7 28 13.2
003B5CE9 2019-03-31 06:02:51 20.7 28 12.9
003B5CE9 2019-03-31 05:30:19 20.7 28 12.9
003B5CE9 2019-03-31 04:57:44 20.7 28 12.8
003B5CE9 2019-03-31 04:25:11 20.7 27 12.8
003B5CE9 2019-03-31 02:52:37 20.7 27 12.4
003B5CE9 2019-03-31 02:20:03 20.7 27 12.3
003B5CE9 2019-03-31 01:47:30 20.7 27 12.3
003B5CE9 2019-03-31 01:14:58 20.7 27 12.9
003B5CE9 2019-03-31 00:42:23 20.7 27 12.8
003B5CE9 2019-03-31 00:09:49 20.8 27 12.5
003B5CE9 2019-03-30 23:37:19 20.8 27 12.8
003B5CE9 2019-03-30 23:04:42 20.8 27 12.9
003B5CE9 2019-03-30 22:31:35 20.8 27 13.3
003B5CE9 2019-03-30 21:59:05 20.9 27 13.2
003B5CE9 2019-03-30 21:26:29 20.9 27 13
003B5CE9 2019-03-30 20:53:56 20.9 27 13
003B5CE9 2019-03-30 20:21:25 20.9 27 13
003B5CE9 2019-03-30 19:48:51 21 27 12.9
003B5CE9 2019-03-30 19:16:19 21 27 13.1
003B5CE9 2019-03-30 18:43:44 21 27 13
003B5CE9 2019-03-30 18:11:13 21.1 27 13.1
003B5CE9 2019-03-30 17:38:41 21.1 27 13.2
003B5CE9 2019-03-30 17:06:04 21.1 27 13.3
003B5CE9 2019-03-30 16:33:30 21.1 27 13.3
003B5CE9 2019-03-30 16:00:57 21.1 27 13.2
003B5CE9 2019-03-30 15:28:24 21 27 13.1
003B5CE9 2019-03-30 14:55:50 21 27 13
003B5CE9 2019-03-30 14:23:16 21 27 13
003B5CE9 2019-03-30 13:50:42 20.9 27 13.1
003B5CE9 2019-03-30 13:18:09 20.9 27 13
003B5CE9 2019-03-30 12:45:36 20.9 27 12.9
003B5CE9 2019-03-30 12:13:03 20.9 27 12.1
003B5CE9 2019-03-30 11:40:29 20.8 27 12
003B5CE9 2019-03-30 11:07:57 20.8 27 12
003B5CE9 2019-03-30 10:35:28 20.8 27 11.6
003B5CE9 2019-03-30 10:02:51 20.8 27 11.4
003B5CE9 2019-03-30 09:30:17 20.7 27 10.4
003B5CE9 2019-03-30 08:57:44 20.7 27 10.3
003B5CE9 2019-03-30 08:25:08 20.7 27 10.4
003B5CE9 2019-03-30 07:52:34 20.7 27 10.5
003B5CE9 2019-03-30 07:20:02 20.7 27 10.7
003B5CE9 2019-03-30 06:47:27 20.8 27 10.6
003B5CE9 2019-03-30 06:14:54 20.8 27 10.5
003B5CE9 2019-03-30 05:42:22 20.8 27 10.2
003B5CE9 2019-03-30 05:09:47 20.8 27 11
003B5CE9 2019-03-30 04:37:12 20.8 28 10.9
003B5CE9 2019-03-30 04:04:40 20.8 28 10.5
003B5CE9 2019-03-30 03:32:06 20.9 28 10.3
003B5CE9 2019-03-30 02:59:32 20.9 28 10.3
003B5CE9 2019-03-30 02:26:59 20.9 28 10.7
003B5CE9 2019-03-30 01:54:25 20.9 28 10.7
003B5CE9 2019-03-30 01:21:50 20.9 28 10.7
003B5CE9 2019-03-30 00:49:21 21 28 10.9
003B5CE9 2019-03-30 00:16:45 21 28 11.2
003B5CE9 2019-03-29 23:44:12 21 28 12.1
003B5CE9 2019-03-29 23:11:36 21 28 12.2
003B5CE9 2019-03-29 22:39:03 21.1 28 12.1
003B5CE9 2019-03-29 22:06:29 21.1 28 12.4
003B5CE9 2019-03-29 21:01:22 21.1 28 12.5
003B5CE9 2019-03-29 20:28:51 21.1 28 12.9
003B5CE9 2019-03-29 19:56:18 21.1 28 13
003B5CE9 2019-03-29 19:23:09 21.1 28 13.3
003B5CE9 2019-03-29 18:50:36 21 28 13.2
003B5CE9 2019-03-29 18:18:03 21 28 13.2
003B5CE9 2019-03-29 17:45:29 21.1 28 13.1
003B5CE9 2019-03-29 17:12:55 21.1 28 13.1
003B5CE9 2019-03-29 16:40:21 21.2 28 13.2
003B5CE9 2019-03-29 15:35:21 21.2 28 13.5
003B5CE9 2019-03-29 14:30:11 21.2 28 13.3
003B5CE9 2019-03-29 13:25:05 21.1 27 13.4
003B5CE9 2019-03-29 12:52:35 21 27 14.6
003B5CE9 2019-03-29 12:19:58 21 27 14.6
003B5CE9 2019-03-29 11:47:24 21 27 14.6
003B5CE9 2019-03-29 10:42:22 21.1 27 14.8
003B5CE9 2019-03-29 10:09:46 21 26 15
003B5CE9 2019-03-29 09:37:12 20.9 26 15.1
003B5CE9 2019-03-29 09:04:39 20.9 26 15.2
003B5CE9 2019-03-29 08:32:04 20.9 25 15.1
003B5CE9 2019-03-29 07:59:30 20.8 25 15
003B5CE9 2019-03-29 07:26:56 20.8 25 15.5
003B5CE9 2019-03-29 06:54:20 20.8 25 15.6
003B5CE9 2019-03-29 06:21:47 20.8 25 15.9
003B5CE9 2019-03-29 05:49:13 20.8 25 16
003B5CE9 2019-03-29 05:16:39 20.9 25 15.9
003B5CE9 2019-03-29 04:44:06 20.9 25 15.8
003B5CE9 2019-03-29 04:11:33 20.9 25 15.7
003B5CE9 2019-03-29 03:39:00 20.9 25 15.7
003B5CE9 2019-03-29 03:06:25 21 25 15.7
003B5CE9 2019-03-29 02:33:53 21 25 15.8
003B5CE9 2019-03-29 02:01:20 21.1 25 15.8
003B5CE9 2019-03-29 01:28:47 21.1 25 16.1
003B5CE9 2019-03-29 00:56:11 21.1 25 16.5
003B5CE9 2019-03-29 00:23:37 21.1 24 16.4
003B5CE9 2019-03-28 23:51:05 21.1 24 16.6
003B5CE9 2019-03-28 23:18:32 21.1 24 19.3
003B5CE9 2019-03-28 22:46:01 21.1 24 19
003B5CE9 2019-03-28 22:13:26 21.2 24 19.1
003B5CE9 2019-03-28 21:40:53 21.2 24 19.1
003B5CE9 2019-03-28 21:08:21 21.2 24 19
003B5CE9 2019-03-28 20:35:48 21.2 24 19
003B5CE9 2019-03-28 20:03:15 21.2 24 19
003B5CE9 2019-03-28 19:30:42 21.2 24 19
003B5CE9 2019-03-28 18:58:08 21.2 24 19
003B5CE9 2019-03-28 18:25:35 21.2 24 18.9
003B5CE9 2019-03-28 17:53:02 21.2 23 18.8
003B5CE9 2019-03-28 17:20:33 21.3 23 18.8
003B5CE9 2019-03-28 16:47:58 21.3 23 18.6
003B5CE9 2019-03-28 16:14:52 21.2 23 18.6
003B5CE9 2019-03-28 15:42:21 21.2 23 18.7
003B5CE9 2019-03-28 15:09:44 21.2 23 18.8
003B5CE9 2019-03-28 14:37:07 21.1 23 18.8
003B5CE9 2019-03-28 14:04:34 21.1 22 18.9
003B5CE9 2019-03-28 13:32:03 21.1 22 18.9
003B5CE9 2019-03-28 12:59:26 21 22 19
003B5CE9 2019-03-28 12:26:53 21 21 19
003B5CE9 2019-03-28 11:54:19 21 21 19
003B5CE9 2019-03-28 11:21:46 21 21 19.1
003B5CE9 2019-03-28 10:49:11 20.9 21 19
003B5CE9 2019-03-28 10:16:38 21 20 16.1
003B5CE9 2019-03-28 09:44:07 20.9 20 16.4
003B5CE9 2019-03-28 09:11:31 20.9 20 16.7
003B5CE9 2019-03-28 08:38:58 20.9 19 17
003B5CE9 2019-03-28 08:06:24 20.8 19 16.9
003B5CE9 2019-03-28 07:33:52 20.8 19 17.1
003B5CE9 2019-03-28 07:01:20 20.8 19 17
003B5CE9 2019-03-28 06:28:47 20.8 19 17.3
003B5CE9 2019-03-28 05:56:13 20.8 19 17.4
003B5CE9 2019-03-28 05:23:41 20.8 19 17.3
003B5CE9 2019-03-28 04:51:07 20.8 19 17.6
003B5CE9 2019-03-28 04:18:34 20.8 18 17.5
003B5CE9 2019-03-28 03:46:00 20.8 18 17.6
003B5CE9 2019-03-28 03:13:26 20.8 18 17.8
003B5CE9 2019-03-28 02:40:53 20.8 18 17.8
003B5CE9 2019-03-28 02:08:20 20.9 18 18.1
003B5CE9 2019-03-28 01:35:43 20.9 17 20.1
003B5CE9 2019-03-28 01:03:09 20.9 17 21.5
003B5CE9 2019-03-28 00:30:35 20.9 17 22.5
003B5CE9 2019-03-27 23:58:01 21 17 23.3
003B5CE9 2019-03-27 23:25:28 21 17 24
003B5CE9 2019-03-27 22:52:55 21 16 24
003B5CE9 2019-03-27 22:20:22 21 16 24
003B5CE9 2019-03-27 21:47:49 21.1 16 24
003B5CE9 2019-03-27 21:15:15 21.1 16 24
003B5CE9 2019-03-27 20:42:40 21.1 16 23.9
003B5CE9 2019-03-27 20:10:06 21.1 16 23.9
003B5CE9 2019-03-27 19:37:34 21.2 16 23.9
003B5CE9 2019-03-27 19:05:05 21.2 16 23.8
003B5CE9 2019-03-27 18:32:28 21.2 16 23.9
003B5CE9 2019-03-27 17:59:55 21.3 16 23.9
003B5CE9 2019-03-27 17:27:22 21.3 16 23.8
003B5CE9 2019-03-27 16:54:48 21.4 16 23.8
003B5CE9 2019-03-27 16:22:15 21.4 16 23.8
003B5CE9 2019-03-27 15:49:42 21.4 16 23.8
003B5CE9 2019-03-27 15:17:10 21.3 16 23.7
003B5CE9 2019-03-27 14:44:37 21.2 16 23.8
003B5CE9 2019-03-27 14:12:01 21.1 16 23.7
003B5CE9 2019-03-27 13:39:28 21 15 23.7
003B5CE9 2019-03-27 13:06:20 20.9 15 23.6
003B5CE9 2019-03-27 12:33:46 20.9 15 22.8
003B5CE9 2019-03-27 12:01:11 20.8 15 21.8
003B5CE9 2019-03-27 11:28:38 20.8 15 20.5
003B5CE9 2019-03-27 10:56:03 20.8 15 18.7
003B5CE9 2019-03-27 10:23:29 20.8 15 15.5
003B5CE9 2019-03-27 09:50:59 20.7 15 15.6
003B5CE9 2019-03-27 09:18:20 20.7 14 15.4
003B5CE9 2019-03-27 08:45:49 20.7 14 15.5
003B5CE9 2019-03-27 08:13:14 20.7 14 15.3
003B5CE9 2019-03-27 07:40:43 20.7 14 15.4
003B5CE9 2019-03-27 07:08:08 20.7 14 15.2
003B5CE9 2019-03-27 06:35:34 20.7 14 15.3
003B5CE9 2019-03-27 06:02:58 20.7 14 15.2
003B5CE9 2019-03-27 05:30:25 20.7 14 15.2
003B5CE9 2019-03-27 04:57:51 20.7 14 18.6
003B5CE9 2019-03-27 04:25:18 20.7 14 18.5
003B5CE9 2019-03-27 03:52:45 20.7 14 18.5
003B5CE9 2019-03-27 03:20:12 20.7 14 18.5
003B5CE9 2019-03-27 02:47:39 20.8 14 18.7
003B5CE9 2019-03-27 02:15:06 20.8 14 18.7
003B5CE9 2019-03-27 01:42:33 20.8 14 18.8
003B5CE9 2019-03-27 01:10:01 20.9 14 18.8
003B5CE9 2019-03-27 00:37:27 20.9 14 19
003B5CE9 2019-03-27 00:04:56 21 14 19
003B5CE9 2019-03-26 23:32:24 21 14 18.9
003B5CE9 2019-03-26 22:59:52 21 14 18.9
003B5CE9 2019-03-26 22:27:20 21.1 14 19.1
003B5CE9 2019-03-26 21:54:49 21.1 14 19.2
003B5CE9 2019-03-26 21:22:15 21.2 14 19.3
003B5CE9 2019-03-26 20:49:43 21.2 14 19.4
003B5CE9 2019-03-26 20:17:10 21.2 14 19.4
003B5CE9 2019-03-26 19:44:37 21.2 14 19.4
003B5CE9 2019-03-26 19:12:04 21.2 14 19.5
003B5CE9 2019-03-26 18:39:33 21.2 14 19.8
003B5CE9 2019-03-26 18:07:00 21.3 14 19.8
003B5CE9 2019-03-26 17:34:25 21.4 14 19.8
003B5CE9 2019-03-26 17:01:54 21.4 15 19.8
003B5CE9 2019-03-26 16:29:19 21.4 15 19.9
003B5CE9 2019-03-26 15:56:45 21.4 15 19.9
003B5CE9 2019-03-26 15:24:12 21.3 15 17.7
003B5CE9 2019-03-26 14:51:38 21.1 15 17.9
003B5CE9 2019-03-26 14:19:07 21 16 18.1
003B5CE9 2019-03-26 13:46:35 20.9 16 18.3
003B5CE9 2019-03-26 13:14:03 20.8 16 18.1
003B5CE9 2019-03-26 12:41:28 20.7 16 18.2
003B5CE9 2019-03-26 12:08:55 20.6 17 18.1
003B5CE9 2019-03-26 11:36:23 20.6 17 18.1
003B5CE9 2019-03-26 11:03:51 20.6 17 17.8
003B5CE9 2019-03-26 10:31:19 20.6 18 18
003B5CE9 2019-03-26 09:58:13 20.6 18 18
003B5CE9 2019-03-26 09:25:43 20.6 19 18.2
003B5CE9 2019-03-26 08:53:07 20.6 19 18.1
003B5CE9 2019-03-26 08:20:34 20.6 20 18.4
003B5CE9 2019-03-26 07:48:01 20.6 20 18.4
003B5CE9 2019-03-26 07:15:28 20.6 20 18.3
003B5CE9 2019-03-26 06:42:56 20.6 20 18.5
003B5CE9 2019-03-26 06:10:22 20.6 20 18.4
003B5CE9 2019-03-26 05:37:49 20.6 20 18.2
003B5CE9 2019-03-26 05:05:19 20.6 20 17.9
003B5CE9 2019-03-26 04:32:43 20.6 20 18
003B5CE9 2019-03-26 04:00:09 20.6 20 17.9
003B5CE9 2019-03-26 03:27:36 20.7 20 17.8
003B5CE9 2019-03-26 02:55:02 20.7 20 20
003B5CE9 2019-03-26 02:22:29 20.7 20 20.1
003B5CE9 2019-03-26 01:49:55 20.7 20 20
003B5CE9 2019-03-26 01:17:21 20.7 20 19.9
003B5CE9 2019-03-26 00:44:45 20.7 20 19.8
003B5CE9 2019-03-26 00:12:12 20.8 20 19.6
003B5CE9 2019-03-25 23:39:40 20.8 20 19.6
003B5CE9 2019-03-25 23:07:07 20.8 20 19.5
003B5CE9 2019-03-25 22:34:34 20.8 20 19.6
003B5CE9 2019-03-25 22:02:00 20.9 20 19.5
003B5CE9 2019-03-25 21:29:27 20.9 20 19.8
003B5CE9 2019-03-25 20:56:53 20.9 20 19.7
003B5CE9 2019-03-25 20:24:21 20.9 20 19.8
003B5CE9 2019-03-25 19:51:44 20.9 20 19.9
003B5CE9 2019-03-25 19:19:10 20.9 21 19.9
003B5CE9 2019-03-25 18:46:37 20.9 21 19.8
003B5CE9 2019-03-25 18:14:03 21 21 19.6
003B5CE9 2019-03-25 17:41:29 21 22 19.8
003B5CE9 2019-03-25 17:08:55 21.1 23 19.6
003B5CE9 2019-03-25 16:36:22 21.1 23 19.6
003B5CE9 2019-03-25 16:03:48 21.1 23 19.7
003B5CE9 2019-03-25 15:31:16 21 24 19.6
003B5CE9 2019-03-25 14:58:42 21.1 24 19.6
003B5CE9 2019-03-25 14:26:10 21.1 24 19.6
003B5CE9 2019-03-25 13:53:38 21 24 19.7
003B5CE9 2019-03-25 13:21:06 20.9 24 17.3
003B5CE9 2019-03-25 12:48:33 20.8 24 16.9
003B5CE9 2019-03-25 12:16:01 20.8 23 16.9
003B5CE9 2019-03-25 11:43:30 20.8 24 16.9
003B5CE9 2019-03-25 11:10:59 20.7 24 17
003B5CE9 2019-03-25 10:38:28 20.7 24 17
003B5CE9 2019-03-25 10:05:56 20.5 23 17.4
003B5CE9 2019-03-25 09:33:24 20.4 23 17.7
003B5CE9 2019-03-25 09:00:53 20.3 23 17.6
003B5CE9 2019-03-25 08:28:20 20.3 23 17.6
003B5CE9 2019-03-25 07:55:44 20.3 23 17.2
003B5CE9 2019-03-25 07:23:12 20.3 23 17.1
003B5CE9 2019-03-25 06:50:07 20.3 23 17
003B5CE9 2019-03-25 06:17:33 20.3 23 17.3
003B5CE9 2019-03-25 05:45:00 20.3 23 17.5
003B5CE9 2019-03-25 05:12:27 20.3 23 17.4
003B5CE9 2019-03-25 04:39:54 20.3 23 17.2
003B5CE9 2019-03-25 04:07:22 20.3 23 17.6
003B5CE9 2019-03-25 03:34:50 20.3 23 18
003B5CE9 2019-03-25 03:02:17 20.4 23 18.1
003B5CE9 2019-03-25 02:29:44 20.4 23 18.1
003B5CE9 2019-03-25 01:57:12 20.4 23 18.1
003B5CE9 2019-03-25 01:24:40 20.4 23 18.4
003B5CE9 2019-03-25 00:52:08 20.5 23 18.6
003B5CE9 2019-03-25 00:19:35 20.6 23 18.6
003B5CE9 2019-03-24 23:47:06 20.6 23 20.6
003B5CE9 2019-03-24 23:14:31 20.6 23 21.9
003B5CE9 2019-03-24 22:42:02 20.7 23 21.9
003B5CE9 2019-03-24 22:09:29 20.8 23 22
003B5CE9 2019-03-24 21:36:56 20.8 23 21.9
003B5CE9 2019-03-24 21:04:23 20.9 23 21.8
003B5CE9 2019-03-24 20:31:50 20.9 23 22.7
003B5CE9 2019-03-24 19:59:19 21 23 22.8
003B5CE9 2019-03-24 19:26:47 21 23 23
003B5CE9 2019-03-24 18:54:16 21 23 23
003B5CE9 2019-03-24 18:21:45 21.1 23 23
003B5CE9 2019-03-24 17:49:14 21.1 23 23
003B5CE9 2019-03-24 17:16:41 21.1 23 22.9
003B5CE9 2019-03-24 16:44:09 21 23 22.9
003B5CE9 2019-03-24 16:11:36 21 24 23
003B5CE9 2019-03-24 15:39:03 20.9 24 23
003B5CE9 2019-03-24 15:06:31 20.7 24 23
003B5CE9 2019-03-24 14:33:59 20.5 24 22.9
003B5CE9 2019-03-24 14:01:24 20.3 24 22.9
003B5CE9 2019-03-24 13:28:51 20.3 23 22.8
003B5CE9 2019-03-24 12:56:17 20.3 23 22.8
003B5CE9 2019-03-24 12:23:43 20.3 23 22.7
003B5CE9 2019-03-24 11:51:08 20.3 24 22.7
003B5CE9 2019-03-24 11:18:34 20.3 23 22.7
003B5CE9 2019-03-24 10:46:00 20.3 23 21.7
003B5CE9 2019-03-24 10:13:28 20.3 23 21.7
003B5CE9 2019-03-24 09:40:53 20.3 23 20.4
003B5CE9 2019-03-24 09:08:19 20.3 23 20.4
003B5CE9 2019-03-24 08:35:46 20.3 23 20.3
003B5CE9 2019-03-24 08:03:11 20.3 23 20.4
003B5CE9 2019-03-24 07:30:39 20.3 23 20.4
003B5CE9 2019-03-24 06:58:06 20.3 23 18.6
003B5CE9 2019-03-24 06:25:33 20.3 23 18.4
003B5CE9 2019-03-24 05:53:00 20.3 23 17.9
003B5CE9 2019-03-24 05:20:26 20.3 23 18
003B5CE9 2019-03-24 04:47:54 20.3 23 19.9
003B5CE9 2019-03-24 04:15:20 20.3 23 19.9
003B5CE9 2019-03-24 03:42:16 20.3 23 21.2
003B5CE9 2019-03-24 03:09:47 20.3 23 21.2
003B5CE9 2019-03-24 02:37:14 20.3 23 21.1
003B5CE9 2019-03-24 02:04:44 20.3 23 20.9
003B5CE9 2019-03-24 01:32:11 20.3 23 20.9
003B5CE9 2019-03-24 00:59:39 20.3 23 20.9
003B5CE9 2019-03-24 00:27:06 20.3 23 20.9
003B5CE9 2019-03-23 23:54:35 20.3 23 20.9
003B5CE9 2019-03-23 23:22:04 20.3 22 20.9
003B5CE9 2019-03-23 22:49:29 20.3 22 20.8
003B5CE9 2019-03-23 22:16:56 20.3 22 20.8
003B5CE9 2019-03-23 21:44:24 20.3 22 20.8
003B5CE9 2019-03-23 21:11:54 20.4 22 20.8
003B5CE9 2019-03-23 20:39:20 20.4 22 20.8
003B5CE9 2019-03-23 20:06:47 20.4 22 20.8
003B5CE9 2019-03-23 19:34:14 20.4 22 20.7
003B5CE9 2019-03-23 19:01:41 20.4 22 20.6
003B5CE9 2019-03-23 18:29:08 20.4 21 20.7
003B5CE9 2019-03-23 17:56:34 20.4 21 20.7
003B5CE9 2019-03-23 17:24:00 20.4 21 20.7
003B5CE9 2019-03-23 16:51:28 20.4 21 20.7
003B5CE9 2019-03-23 16:18:55 20.4 21 20.7
003B5CE9 2019-03-23 15:46:21 20.4 21 19
003B5CE9 2019-03-23 15:13:47 20.4 21 19
003B5CE9 2019-03-23 14:41:14 20.4 21 16.1
003B5CE9 2019-03-23 14:08:40 20.4 21 16
003B5CE9 2019-03-23 13:36:07 20.4 21 15.9
003B5CE9 2019-03-23 13:03:33 20.4 20 15.6
003B5CE9 2019-03-23 12:31:00 20.4 20 15.7
003B5CE9 2019-03-23 11:58:28 20.4 20 15.8
003B5CE9 2019-03-23 11:25:52 20.4 20 15.7
003B5CE9 2019-03-23 10:53:18 20.5 20 15.9
003B5CE9 2019-03-23 10:20:44 20.4 20 15.7
003B5CE9 2019-03-23 09:48:10 20.5 20 15.6
003B5CE9 2019-03-23 09:15:37 20.4 20 15.7
003B5CE9 2019-03-23 08:43:06 20.5 20 15.8
003B5CE9 2019-03-23 08:10:33 20.5 20 15.8
003B5CE9 2019-03-23 07:38:02 20.5 20 15.4
003B5CE9 2019-03-23 07:05:28 20.5 20 15.4
003B5CE9 2019-03-23 06:32:57 20.5 19 15.2
003B5CE9 2019-03-23 06:00:23 20.5 19 15.3
003B5CE9 2019-03-23 05:27:51 20.5 19 15.2
003B5CE9 2019-03-23 04:55:20 20.5 19 14.9
003B5CE9 2019-03-23 04:22:42 20.6 19 14.6
003B5CE9 2019-03-23 03:50:10 20.6 19 14.6
003B5CE9 2019-03-23 03:17:37 20.6 19 14.7
003B5CE9 2019-03-23 02:45:06 20.7 19 18.2
003B5CE9 2019-03-23 02:12:33 20.7 19 18.1
003B5CE9 2019-03-23 01:39:58 20.8 18 18.1
003B5CE9 2019-03-23 01:07:25 20.8 18 18.2
003B5CE9 2019-03-23 00:34:17 20.9 18 18.2
003B5CE9 2019-03-23 00:01:46 21 18 18.3
003B5CE9 2019-03-22 23:29:10 21 18 18.5
003B5CE9 2019-03-22 22:56:37 21.1 18 18.5
003B5CE9 2019-03-22 22:24:03 21.2 18 18.5
003B5CE9 2019-03-22 21:51:35 21.3 18 18.4
003B5CE9 2019-03-22 21:19:00 21.4 17 18.5
003B5CE9 2019-03-22 20:46:28 21.4 17 18.5
003B5CE9 2019-03-22 20:13:55 21.3 17 18.6
003B5CE9 2019-03-22 19:41:25 21.3 17 18.5
003B5CE9 2019-03-22 19:08:49 21.3 17 18.9
003B5CE9 2019-03-22 18:36:16 21.3 17 18.9
003B5CE9 2019-03-22 18:03:44 21.3 17 19.1
003B5CE9 2019-03-22 17:31:13 21.3 17 19.2
003B5CE9 2019-03-22 16:58:41 21.3 17 19.4
003B5CE9 2019-03-22 16:26:10 21.3 17 19.4
003B5CE9 2019-03-22 15:53:40 21.2 17 19.5
003B5CE9 2019-03-22 15:21:07 21.1 18 19.8
003B5CE9 2019-03-22 14:48:35 20.9 18 19.9
003B5CE9 2019-03-22 14:16:03 20.8 19 19.9
003B5CE9 2019-03-22 13:43:32 20.7 19 17.7
003B5CE9 2019-03-22 12:38:30 20.7 20 18.1
003B5CE9 2019-03-22 12:05:58 20.7 20 18.2
003B5CE9 2019-03-22 11:33:28 20.7 21 18.2
003B5CE9 2019-03-22 11:00:58 20.7 21 18.5
003B5CE9 2019-03-22 10:28:24 20.7 22 18.5
003B5CE9 2019-03-22 09:55:48 20.7 22 20.4
003B5CE9 2019-03-22 09:23:15 20.6 23 20.3
003B5CE9 2019-03-22 08:50:44 20.6 23 20.3
003B5CE9 2019-03-22 08:18:07 20.6 24 20.3
003B5CE9 2019-03-22 07:45:35 20.6 24 20.3
003B5CE9 2019-03-22 07:13:03 20.6 24 20.4
003B5CE9 2019-03-22 06:40:29 20.6 25 20.4
003B5CE9 2019-03-22 06:07:57 20.7 25 20.4
003B5CE9 2019-03-22 05:35:23 20.7 25 20.4
003B5CE9 2019-03-22 05:02:50 20.7 26 20.2
003B5CE9 2019-03-22 04:30:18 20.7 26 20.2
003B5CE9 2019-03-22 03:57:45 20.7 26 20.2
003B5CE9 2019-03-22 03:25:12 20.7 27 20.1
003B5CE9 2019-03-22 02:52:39 20.7 27 19.9
003B5CE9 2019-03-22 02:20:06 20.7 27 19.9
003B5CE9 2019-03-22 01:47:33 20.7 27 19.7
003B5CE9 2019-03-22 01:15:01 20.7 28 19.5
003B5CE9 2019-03-22 00:42:28 20.8 28 19.4
003B5CE9 2019-03-22 00:09:55 20.8 28 19.4
003B5CE9 2019-03-21 23:37:23 20.8 28 19.3
003B5CE9 2019-03-21 23:04:49 20.8 28 19
003B5CE9 2019-03-21 22:32:16 20.9 28 18.9
003B5CE9 2019-03-21 21:59:43 20.9 28 18.9
003B5CE9 2019-03-21 21:26:38 20.9 28 18.5
003B5CE9 2019-03-21 20:54:07 20.9 28 18.4
003B5CE9 2019-03-21 20:21:35 20.9 28 15
003B5CE9 2019-03-21 19:49:03 21 28 14.9
003B5CE9 2019-03-21 19:16:31 21 28 14.9
003B5CE9 2019-03-21 18:43:59 21 28 14.4
003B5CE9 2019-03-21 18:11:25 21.1 27 14.4
003B5CE9 2019-03-21 17:38:53 21.1 27 13.7
003B5CE9 2019-03-21 17:06:20 21.2 27 13.7
003B5CE9 2019-03-21 16:33:49 21.2 27 13.8
003B5CE9 2019-03-21 16:01:14 21.3 28 13.6
003B5CE9 2019-03-21 15:28:41 21.3 28 13.2
003B5CE9 2019-03-21 14:56:10 21.3 27 12.9
003B5CE9 2019-03-21 14:23:36 21.2 26 12.4
003B5CE9 2019-03-21 13:51:03 21.1 26 12.6
003B5CE9 2019-03-21 13:18:35 21 26 12.7
003B5CE9 2019-03-21 12:46:01 20.9 25 12.7
003B5CE9 2019-03-21 12:13:26 20.9 25 13.4
003B5CE9 2019-03-21 11:08:25 20.8 25 13.6
003B5CE9 2019-03-21 10:35:51 20.7 25 14.2
003B5CE9 2019-03-21 10:03:21 20.7 25 14.3
003B5CE9 2019-03-21 09:30:48 20.7 25 14.4
003B5CE9 2019-03-21 08:58:15 20.6 25 14.4
003B5CE9 2019-03-21 08:25:41 20.6 25 14.5
003B5CE9 2019-03-21 06:15:33 20.6 25 15
003B5CE9 2019-03-21 05:42:58 20.6 25 15
003B5CE9 2019-03-21 05:10:26 20.6 25 15.1
003B5CE9 2019-03-21 04:37:55 20.6 25 15
003B5CE9 2019-03-21 04:05:19 20.6 26 15
003B5CE9 2019-03-21 03:32:45 20.6 26 14.9
003B5CE9 2019-03-21 03:00:11 20.6 26 14.9
003B5CE9 2019-03-21 02:27:39 20.6 26 14.8
003B5CE9 2019-03-21 01:55:03 20.6 26 15.1
003B5CE9 2019-03-21 01:22:30 20.6 26 15.1
003B5CE9 2019-03-21 00:50:00 20.6 26 15.1
003B5CE9 2019-03-21 00:17:25 20.7 26 15.1
003B5CE9 2019-03-20 23:44:53 20.7 26 15.2
003B5CE9 2019-03-20 23:12:20 20.7 26 15.1
003B5CE9 2019-03-20 22:39:47 20.7 26 15.4
003B5CE9 2019-03-20 22:07:13 20.7 26 15.5
003B5CE9 2019-03-20 21:34:41 20.7 26 15.6
003B5CE9 2019-03-20 21:02:07 20.7 26 15.5
003B5CE9 2019-03-20 20:29:34 20.8 26 15.1
003B5CE9 2019-03-20 19:56:59 20.8 26 15
003B5CE9 2019-03-20 19:24:27 20.8 26 14.5
003B5CE9 2019-03-20 18:51:53 21.1 25 14.3
003B5CE9 2019-03-20 18:50:38 20.8 26 14.3
003B5CE9 2019-03-20 18:18:05 20.9 26 14.3
003B5CE9 2019-03-20 17:45:32 20.9 26 14.3
003B5CE9 2019-03-20 17:12:57 21 26 13.8
003B5CE9 2019-03-20 16:40:25 21 25 13.9
003B5CE9 2019-03-20 15:35:24 21.1 26 13.6
003B5CE9 2019-03-20 15:02:50 21.1 25 13.4
003B5CE9 2019-03-20 14:30:19 21.1 25 13.5
003B5CE9 2019-03-20 13:57:44 21 25 13.5
003B5CE9 2019-03-20 13:25:11 21 25 13.6
003B5CE9 2019-03-20 12:52:38 20.9 25 13.9
003B5CE9 2019-03-20 12:20:07 20.9 25 13.4
003B5CE9 2019-03-20 11:47:34 20.9 25 13.3
003B5CE9 2019-03-20 10:42:24 20.7 25 13.3
003B5CE9 2019-03-20 10:09:49 20.6 25 13.3
003B5CE9 2019-03-20 09:37:16 20.6 25 13.2
003B5CE9 2019-03-20 09:04:41 20.5 25 13.3
003B5CE9 2019-03-20 08:32:04 20.5 26 12.9
003B5CE9 2019-03-20 07:59:29 20.6 26 12.6
003B5CE9 2019-03-20 07:26:56 20.5 26 12.6
003B5CE9 2019-03-20 06:54:21 20.6 27 17.6
003B5CE9 2019-03-20 06:21:47 20.6 27 17.6
003B5CE9 2019-03-20 05:49:12 20.6 27 17.7
003B5CE9 2019-03-20 05:16:39 20.6 27 17.7
003B5CE9 2019-03-20 04:44:05 20.6 27 17.7
003B5CE9 2019-03-20 04:11:31 20.6 27 17.7
003B5CE9 2019-03-20 03:39:01 20.6 27 17.7
003B5CE9 2019-03-20 03:06:27 20.6 28 17.8
003B5CE9 2019-03-20 02:33:55 20.6 28 17.8
003B5CE9 2019-03-20 02:01:23 20.6 28 17.8
003B5CE9 2019-03-20 01:28:52 20.7 28 18.1
003B5CE9 2019-03-20 00:56:20 20.6 28 18.1
003B5CE9 2019-03-20 00:23:48 20.7 28 18.1
003B5CE9 2019-03-19 23:51:18 20.7 28 18.3
003B5CE9 2019-03-19 23:18:42 20.7 28 18.5
003B5CE9 2019-03-19 22:46:10 20.7 28 18.5
003B5CE9 2019-03-19 22:13:38 20.8 29 18.6
003B5CE9 2019-03-19 21:41:07 20.8 29 18.6
003B5CE9 2019-03-19 21:08:34 20.8 29 18.7
003B5CE9 2019-03-19 20:36:00 20.8 29 18.8
003B5CE9 2019-03-19 20:03:29 20.9 29 19.1
003B5CE9 2019-03-19 19:30:57 20.9 29 19.1
003B5CE9 2019-03-19 18:58:23 20.9 29 19.3
003B5CE9 2019-03-19 18:25:50 21 29 19.5
003B5CE9 2019-03-19 17:53:21 21.1 29 19.5
003B5CE9 2019-03-19 17:20:46 21.2 30 17
003B5CE9 2019-03-19 16:15:40 21.2 29 16.9
003B5CE9 2019-03-19 15:42:34 21.1 29 17
003B5CE9 2019-03-19 15:10:02 21.1 29 17
003B5CE9 2019-03-19 14:37:29 21.2 29 19.5
003B5CE9 2019-03-19 14:04:58 21.1 29 19.6
003B5CE9 2019-03-19 13:32:26 21.1 29 19.6
003B5CE9 2019-03-19 12:59:51 21.1 29 19.6
003B5CE9 2019-03-19 12:27:18 21 29 19.5
003B5CE9 2019-03-19 11:54:43 21 29 19.4
003B5CE9 2019-03-19 11:22:11 20.9 28 19.5
003B5CE9 2019-03-19 10:49:36 20.8 28 19.6
003B5CE9 2019-03-19 10:17:03 20.7 28 19.5
003B5CE9 2019-03-19 09:44:31 20.7 27 19.3
003B5CE9 2019-03-19 09:11:57 20.6 27 19.3
003B5CE9 2019-03-19 08:39:24 20.6 27 19.4
003B5CE9 2019-03-19 08:06:52 20.6 27 19.4
003B5CE9 2019-03-19 07:34:20 20.6 27 19.4
003B5CE9 2019-03-19 07:01:48 20.6 27 19.5
003B5CE9 2019-03-19 06:29:16 20.6 27 19.2
003B5CE9 2019-03-19 05:56:44 20.5 27 19.3
003B5CE9 2019-03-19 05:24:11 20.6 27 20.8
003B5CE9 2019-03-19 04:51:38 20.6 27 20.7
003B5CE9 2019-03-19 04:19:08 20.6 27 20.7
003B5CE9 2019-03-19 03:46:34 20.6 27 20.6
003B5CE9 2019-03-19 03:13:59 20.6 27 20.6
003B5CE9 2019-03-19 02:41:24 20.6 27 20.8
003B5CE9 2019-03-19 02:08:53 20.6 27 20.9
003B5CE9 2019-03-19 01:36:17 20.6 27 19.2
003B5CE9 2019-03-19 01:03:44 20.6 27 19.2
003B5CE9 2019-03-19 00:31:11 20.6 27 19.2
003B5CE9 2019-03-18 23:58:40 20.6 27 19.3
003B5CE9 2019-03-18 23:26:04 20.6 27 19.4
003B5CE9 2019-03-18 22:53:33 20.6 27 19.5
003B5CE9 2019-03-18 22:20:56 20.7 27 19.4
003B5CE9 2019-03-18 21:48:22 20.7 27 19.3
003B5CE9 2019-03-18 21:15:48 20.7 27 19.3
003B5CE9 2019-03-18 20:43:13 20.7 27 19.3
003B5CE9 2019-03-18 20:10:37 20.7 27 19.3
003B5CE9 2019-03-18 19:38:03 20.8 27 19.4
003B5CE9 2019-03-18 19:05:29 20.8 27 19.4
003B5CE9 2019-03-18 18:32:55 20.8 27 19.6
003B5CE9 2019-03-18 18:00:21 20.9 27 19.7
003B5CE9 2019-03-18 17:27:45 20.9 27 19.9
003B5CE9 2019-03-18 16:55:10 21 27 20
003B5CE9 2019-03-18 16:22:37 21 27 20
003B5CE9 2019-03-18 15:50:02 20.9 27 20.1
003B5CE9 2019-03-18 15:17:28 20.9 27 20.2
003B5CE9 2019-03-18 14:44:54 20.9 27 20.4
003B5CE9 2019-03-18 14:12:22 20.9 27 20.6
003B5CE9 2019-03-18 13:39:46 20.8 27 20.6
003B5CE9 2019-03-18 13:07:12 20.8 27 20.4
003B5CE9 2019-03-18 12:34:05 20.8 27 20.5
003B5CE9 2019-03-18 12:01:32 20.8 27 20.5
003B5CE9 2019-03-18 11:28:59 20.7 27 20.5
003B5CE9 2019-03-18 10:56:24 20.7 27 20.4
003B5CE9 2019-03-18 10:23:53 20.6 27 20.4
003B5CE9 2019-03-18 09:51:18 20.6 27 21.7
003B5CE9 2019-03-18 09:18:45 20.6 27 21.8
003B5CE9 2019-03-18 08:46:10 20.6 27 21.8
003B5CE9 2019-03-18 08:13:37 20.6 27 21.8
003B5CE9 2019-03-18 07:41:03 20.6 27 21.7
003B5CE9 2019-03-18 07:08:29 20.6 27 21.7
003B5CE9 2019-03-18 06:35:56 20.6 27 21.6
003B5CE9 2019-03-18 06:03:22 20.6 27 21.6
003B5CE9 2019-03-18 05:30:49 20.6 27 21.5
003B5CE9 2019-03-18 04:58:14 20.6 27 21.4
003B5CE9 2019-03-18 04:25:40 20.6 27 21.2
003B5CE9 2019-03-18 03:53:07 20.6 27 21.2
003B5CE9 2019-03-18 03:20:34 20.6 27 19.9
003B5CE9 2019-03-18 02:48:02 20.6 27 19.9
003B5CE9 2019-03-18 02:15:29 20.6 26 19.9
003B5CE9 2019-03-18 01:42:59 20.6 26 19.7
003B5CE9 2019-03-18 01:10:24 20.6 26 19.7
003B5CE9 2019-03-18 00:37:55 20.6 26 19.6
003B5CE9 2019-03-18 00:05:18 20.6 26 19.5
003B5CE9 2019-03-17 23:32:44 20.6 26 19.6
003B5CE9 2019-03-17 23:00:12 20.6 26 19.6
003B5CE9 2019-03-17 22:27:40 20.6 26 19.7
003B5CE9 2019-03-17 21:55:09 20.6 26 20
003B5CE9 2019-03-17 21:22:33 20.6 26 20.2
003B5CE9 2019-03-17 20:50:00 20.6 26 18.2
003B5CE9 2019-03-17 20:17:28 20.6 26 18.4
003B5CE9 2019-03-17 19:44:56 20.6 26 18.8
003B5CE9 2019-03-17 19:12:22 20.6 26 19.1
003B5CE9 2019-03-17 18:39:49 20.6 26 19.4
003B5CE9 2019-03-17 18:07:18 20.6 26 19.3
003B5CE9 2019-03-17 17:34:41 20.6 26 19.3
003B5CE9 2019-03-17 17:02:07 20.6 26 19.6
003B5CE9 2019-03-17 16:29:36 20.6 26 19.6
003B5CE9 2019-03-17 15:57:02 20.6 26 19.7
003B5CE9 2019-03-17 15:24:29 20.6 27 20
003B5CE9 2019-03-17 14:51:57 20.6 27 19.9
003B5CE9 2019-03-17 14:19:24 20.7 27 19.8
003B5CE9 2019-03-17 13:46:52 20.6 27 19.8
003B5CE9 2019-03-17 13:14:20 20.6 26 19.8
003B5CE9 2019-03-17 12:41:47 20.6 27 20
003B5CE9 2019-03-17 12:09:14 20.7 26 20
003B5CE9 2019-03-17 11:36:40 20.6 27 20
003B5CE9 2019-03-17 11:04:07 20.6 27 20.2
003B5CE9 2019-03-17 10:31:34 20.6 27 20.3
003B5CE9 2019-03-17 09:59:01 20.6 27 20.3
003B5CE9 2019-03-17 09:25:55 20.6 27 20.3
003B5CE9 2019-03-17 08:53:22 20.6 27 20.1
003B5CE9 2019-03-17 08:20:47 20.6 27 20
003B5CE9 2019-03-17 07:48:13 20.6 27 20
003B5CE9 2019-03-17 07:15:40 20.6 27 19.9
003B5CE9 2019-03-17 06:43:07 20.6 27 19.6
003B5CE9 2019-03-17 06:10:33 20.6 27 19.6
003B5CE9 2019-03-17 05:37:58 20.6 27 19.5
003B5CE9 2019-03-17 05:05:26 20.6 27 19.5
003B5CE9 2019-03-17 04:32:54 20.6 27 19.7
003B5CE9 2019-03-17 04:00:20 20.6 27 19.5
003B5CE9 2019-03-17 03:27:48 20.6 27 19.4
003B5CE9 2019-03-17 02:55:15 20.6 27 19.4
003B5CE9 2019-03-17 02:22:42 20.6 27 19.1
003B5CE9 2019-03-17 01:50:09 20.6 27 19.2
003B5CE9 2019-03-17 01:17:38 20.6 27 19.4
003B5CE9 2019-03-17 00:45:03 20.6 27 19.5
003B5CE9 2019-03-17 00:12:30 20.6 27 19.6
003B5CE9 2019-03-16 23:39:57 20.6 27 19.6
003B5CE9 2019-03-16 23:07:24 20.6 27 19.7
003B5CE9 2019-03-16 22:34:51 20.6 27 19.8
003B5CE9 2019-03-16 22:02:19 20.6 26 19.7
003B5CE9 2019-03-16 21:29:47 20.6 26 19.8
003B5CE9 2019-03-16 20:57:13 20.6 26 19.8
003B5CE9 2019-03-16 20:24:41 20.6 26 20
003B5CE9 2019-03-16 19:52:08 20.6 26 20
003B5CE9 2019-03-16 19:19:36 20.6 26 20.1
003B5CE9 2019-03-16 18:47:02 20.6 26 20.1
003B5CE9 2019-03-16 18:14:31 20.6 26 20.1
003B5CE9 2019-03-16 17:41:56 20.6 26 20.3
003B5CE9 2019-03-16 17:09:23 20.7 26 20.4
003B5CE9 2019-03-16 16:36:50 20.7 26 20.4
003B5CE9 2019-03-16 16:04:16 20.6 26 20.5
003B5CE9 2019-03-16 15:31:43 20.6 26 20.6
003B5CE9 2019-03-16 14:59:10 20.6 26 20.6
003B5CE9 2019-03-16 14:26:36 20.6 26 20.7
003B5CE9 2019-03-16 13:54:03 20.6 26 20.8
003B5CE9 2019-03-16 13:21:31 20.7 26 20.7
003B5CE9 2019-03-16 12:48:59 20.6 26 20.7
003B5CE9 2019-03-16 12:16:27 20.6 26 20.7
003B5CE9 2019-03-16 11:43:55 20.6 26 20.6
003B5CE9 2019-03-16 11:11:22 20.6 26 20.6
003B5CE9 2019-03-16 10:38:49 20.6 26 20.6
003B5CE9 2019-03-16 10:06:17 20.7 26 20.6
003B5CE9 2019-03-16 09:33:44 20.7 26 20.6
003B5CE9 2019-03-16 09:01:11 20.6 26 20.7
003B5CE9 2019-03-16 08:28:39 20.7 26 20.6
003B5CE9 2019-03-16 07:56:07 20.7 26 20.4
003B5CE9 2019-03-16 07:23:33 20.7 26 20.3
003B5CE9 2019-03-16 06:50:59 20.7 26 20.2
003B5CE9 2019-03-16 06:17:52 20.7 26 19.9
003B5CE9 2019-03-16 05:45:18 20.6 26 19.8
003B5CE9 2019-03-16 05:12:43 20.7 26 19.8
003B5CE9 2019-03-16 04:40:09 20.7 26 19.5
003B5CE9 2019-03-16 04:07:33 20.6 26 19.3
003B5CE9 2019-03-16 03:34:59 20.6 26 18.9
003B5CE9 2019-03-16 03:02:26 20.6 26 18.6
003B5CE9 2019-03-16 02:29:51 20.7 27 18.4
003B5CE9 2019-03-16 01:57:18 20.6 27 18.1
003B5CE9 2019-03-16 01:24:44 20.7 27 17.8
003B5CE9 2019-03-16 00:52:11 20.7 27 17.6
003B5CE9 2019-03-16 00:19:38 20.7 27 17.6
003B5CE9 2019-03-15 23:47:04 20.7 27 17.4
003B5CE9 2019-03-15 23:14:29 20.7 27 17
003B5CE9 2019-03-15 22:41:55 20.7 27 16.7
003B5CE9 2019-03-15 22:09:21 20.7 27 16.2
003B5CE9 2019-03-15 21:36:47 20.8 27 15.8
003B5CE9 2019-03-15 21:04:14 20.8 27 15.4
003B5CE9 2019-03-15 20:31:41 20.8 27 14.8
003B5CE9 2019-03-15 19:59:09 20.8 27 14.4
003B5CE9 2019-03-15 19:26:33 20.8 26 14.2
003B5CE9 2019-03-15 18:53:59 20.8 26 14.2
003B5CE9 2019-03-15 18:21:25 20.8 26 14.2
003B5CE9 2019-03-15 17:48:51 20.8 26 14.2
003B5CE9 2019-03-15 17:16:17 20.8 26 14.4
003B5CE9 2019-03-15 16:43:44 20.8 26 14.5
003B5CE9 2019-03-15 16:11:11 20.8 26 14.8
003B5CE9 2019-03-15 15:38:38 20.8 26 14.8
003B5CE9 2019-03-15 15:06:04 20.8 26 15.2
003B5CE9 2019-03-15 14:33:32 20.8 26 15.5
003B5CE9 2019-03-15 14:00:59 20.8 26 15.7
003B5CE9 2019-03-15 13:28:26 20.8 26 16
003B5CE9 2019-03-15 12:55:54 20.8 26 16.2
003B5CE9 2019-03-15 12:23:20 20.8 26 16.3
003B5CE9 2019-03-15 11:50:46 20.8 26 16.3
003B5CE9 2019-03-15 11:18:15 20.7 26 16.4
003B5CE9 2019-03-15 10:45:39 20.7 26 16.5
003B5CE9 2019-03-15 10:13:08 20.7 25 16.8
003B5CE9 2019-03-15 09:40:30 20.7 25 16.9
003B5CE9 2019-03-15 09:07:57 20.6 25 17
003B5CE9 2019-03-15 08:35:20 20.6 25 16.9
003B5CE9 2019-03-15 08:02:46 20.6 24 17
003B5CE9 2019-03-15 07:30:12 20.6 24 16.9
003B5CE9 2019-03-15 06:57:37 20.6 24 16.8
003B5CE9 2019-03-15 06:25:04 20.6 24 16.8
003B5CE9 2019-03-15 05:52:29 20.6 24 16.7
003B5CE9 2019-03-15 05:19:56 20.7 24 16.6
003B5CE9 2019-03-15 04:47:20 20.6 24 16.4
003B5CE9 2019-03-15 04:14:46 20.6 24 16.5
003B5CE9 2019-03-15 03:42:12 20.6 24 16.3
003B5CE9 2019-03-15 03:09:10 20.6 24 16
003B5CE9 2019-03-15 02:36:37 20.6 24 16
003B5CE9 2019-03-15 02:04:04 20.7 24 15.6
003B5CE9 2019-03-15 01:31:30 20.6 24 15.2
003B5CE9 2019-03-15 00:58:57 20.7 24 15
003B5CE9 2019-03-15 00:26:23 20.7 24 15.1
003B5CE9 2019-03-14 23:53:48 20.7 24 14.9
003B5CE9 2019-03-14 23:21:14 20.7 24 14.8
003B5CE9 2019-03-14 22:48:40 20.7 24 14.8
003B5CE9 2019-03-14 22:16:06 20.7 24 14.7
003B5CE9 2019-03-14 21:43:33 20.8 24 14.4
003B5CE9 2019-03-14 21:10:59 20.8 24 14
003B5CE9 2019-03-14 20:38:25 20.8 24 13.8
003B5CE9 2019-03-14 20:05:52 20.8 24 14.3
003B5CE9 2019-03-14 19:33:17 20.9 24 14.3
003B5CE9 2019-03-14 19:00:43 20.9 24 14.1
003B5CE9 2019-03-14 18:28:11 20.9 24 14.1
003B5CE9 2019-03-14 17:55:39 20.9 24 18.1
003B5CE9 2019-03-14 17:23:05 20.9 24 18.2
003B5CE9 2019-03-14 16:50:31 20.9 24 18.2
003B5CE9 2019-03-14 16:17:57 20.9 24 18.2
003B5CE9 2019-03-14 15:45:24 20.9 24 18.2
003B5CE9 2019-03-14 15:12:49 20.9 24 18.2
003B5CE9 2019-03-14 14:40:17 20.9 24 18.2
003B5CE9 2019-03-14 14:07:45 21 23 18.2
003B5CE9 2019-03-14 13:35:14 20.9 23 18.2
003B5CE9 2019-03-14 13:02:39 20.9 23 18.2
003B5CE9 2019-03-14 12:30:07 20.8 23 18.3
003B5CE9 2019-03-14 11:57:34 20.8 22 18.2
003B5CE9 2019-03-14 11:25:00 20.8 22 18.3
003B5CE9 2019-03-14 10:52:28 20.8 22 18
003B5CE9 2019-03-14 10:19:55 20.7 22 18
003B5CE9 2019-03-14 09:47:23 20.7 21 18.1
003B5CE9 2019-03-14 09:14:48 20.7 21 18
003B5CE9 2019-03-14 08:42:19 20.6 20 18.1
003B5CE9 2019-03-14 04:54:18 20.6 18 18.3
003B5CE9 2019-03-14 04:21:45 20.6 18 14.7
003B5CE9 2019-03-14 03:49:12 20.6 18 14.6
003B5CE9 2019-03-14 03:16:41 20.6 18 14.5
003B5CE9 2019-03-14 02:44:05 20.6 18 18.3
003B5CE9 2019-03-14 02:11:32 20.6 18 18.3
003B5CE9 2019-03-14 01:38:57 20.6 17 18.3
003B5CE9 2019-03-14 01:06:23 20.6 17 18.3
003B5CE9 2019-03-14 00:33:49 20.6 17 18.3
003B5CE9 2019-03-14 00:00:42 20.6 17 18.3
003B5CE9 2019-03-13 23:28:08 20.6 17 18.4
003B5CE9 2019-03-13 22:55:35 20.6 17 18.4
003B5CE9 2019-03-13 22:23:01 20.6 17 18.6
003B5CE9 2019-03-13 21:50:25 20.6 17 18.7
003B5CE9 2019-03-13 21:17:52 20.7 17 18.9
003B5CE9 2019-03-13 20:45:18 20.7 17 18.9
003B5CE9 2019-03-13 20:12:44 20.7 16 19
003B5CE9 2019-03-13 19:40:10 20.7 16 19.1
003B5CE9 2019-03-13 19:07:36 20.7 16 19
003B5CE9 2019-03-13 18:35:07 20.8 16 19
003B5CE9 2019-03-13 18:02:32 20.8 16 19.1
003B5CE9 2019-03-13 17:29:53 20.9 16 19.2
003B5CE9 2019-03-13 16:24:46 21 16 19.1
003B5CE9 2019-03-13 15:52:12 20.9 16 19.1
003B5CE9 2019-03-13 15:19:37 20.9 16 19.2
003B5CE9 2019-03-13 14:47:01 20.9 16 19.1
003B5CE9 2019-03-13 14:14:27 20.8 16 19.3
003B5CE9 2019-03-13 13:41:53 20.8 16 19.3
003B5CE9 2019-03-13 13:09:17 20.8 16 19.5
003B5CE9 2019-03-13 12:36:47 20.8 16 19.5
003B5CE9 2019-03-13 12:04:09 20.8 16 19.7
003B5CE9 2019-03-13 11:31:33 20.8 16 19.7
003B5CE9 2019-03-13 10:58:59 20.7 16 19.7
003B5CE9 2019-03-13 10:26:23 20.7 16 19.8
003B5CE9 2019-03-13 09:53:49 20.6 16 19.8
003B5CE9 2019-03-13 09:21:16 20.4 15 19.8
003B5CE9 2019-03-13 08:48:37 20.3 15 19.7
003B5CE9 2019-03-13 08:16:03 20.3 15 19.8
003B5CE9 2019-03-13 07:43:31 20.4 15 19.6
003B5CE9 2019-03-13 07:10:53 20.3 15 19.7
003B5CE9 2019-03-13 06:38:18 20.4 15 19.8
003B5CE9 2019-03-13 06:05:44 20.4 15 19.7
003B5CE9 2019-03-13 05:33:09 20.4 16 19.7
003B5CE9 2019-03-13 05:00:33 20.4 16 19.6
003B5CE9 2019-03-13 04:27:59 20.4 16 19.5
003B5CE9 2019-03-13 03:55:24 20.4 16 19.3
003B5CE9 2019-03-13 03:22:47 20.4 16 19.3
003B5CE9 2019-03-13 02:50:12 20.4 16 19.2
003B5CE9 2019-03-13 02:17:37 20.5 16 20.9
003B5CE9 2019-03-13 01:45:02 20.5 16 20.9
003B5CE9 2019-03-13 01:12:28 20.5 16 20.8
003B5CE9 2019-03-13 00:39:52 20.5 16 20.8
003B5CE9 2019-03-13 00:07:17 20.5 16 20.8
003B5CE9 2019-03-12 23:34:44 20.5 16 20.6
003B5CE9 2019-03-12 23:02:09 20.5 16 20.6
003B5CE9 2019-03-12 22:29:33 20.6 16 21.8
003B5CE9 2019-03-12 21:56:58 20.6 16 22.8
003B5CE9 2019-03-12 21:24:23 20.6 16 23.6
003B5CE9 2019-03-12 20:51:16 20.6 16 24.8
003B5CE9 2019-03-12 20:18:43 20.6 16 25.3
003B5CE9 2019-03-12 19:46:09 20.7 16 25.8
003B5CE9 2019-03-12 19:13:36 20.7 16 26.2
003B5CE9 2019-03-12 18:41:04 20.7 16 26.6
003B5CE9 2019-03-12 18:08:27 20.7 16 26.9
003B5CE9 2019-03-12 17:35:54 20.7 16 27.2
003B5CE9 2019-03-12 17:03:22 20.7 16 27.6
003B5CE9 2019-03-12 16:30:45 20.7 16 27.8
003B5CE9 2019-03-12 15:58:11 20.7 16 28.1
003B5CE9 2019-03-12 15:25:37 20.7 16 28.4
003B5CE9 2019-03-12 14:53:03 20.7 16 28.4
003B5CE9 2019-03-12 14:20:29 20.6 16 28.6
003B5CE9 2019-03-12 13:47:55 20.7 16 28.9
003B5CE9 2019-03-12 13:15:21 20.6 16 28.9
003B5CE9 2019-03-12 12:42:46 20.7 16 29.1
003B5CE9 2019-03-12 12:10:12 20.6 16 29.3
003B5CE9 2019-03-12 11:37:37 20.6 16 29.5
003B5CE9 2019-03-12 11:05:03 20.5 16 29.5
003B5CE9 2019-03-12 10:32:28 20.5 16 29.7
003B5CE9 2019-03-12 09:59:54 20.4 15 29.8
003B5CE9 2019-03-12 09:27:20 20.4 15 29.8
003B5CE9 2019-03-12 08:54:47 20.3 15 29.8
003B5CE9 2019-03-12 08:22:13 20.3 15 29.8
003B5CE9 2019-03-12 07:49:40 20.4 16 29.8
003B5CE9 2019-03-12 07:17:05 20.4 16 29.7
003B5CE9 2019-03-12 06:44:31 20.4 16 29.7
003B5CE9 2019-03-12 06:11:57 20.4 16 29.7
003B5CE9 2019-03-12 05:39:22 20.4 16 29.7
003B5CE9 2019-03-12 05:06:46 20.4 16 29.7
003B5CE9 2019-03-12 04:34:13 20.4 16 29.5
003B5CE9 2019-03-12 04:01:39 20.4 16 29.3
003B5CE9 2019-03-12 03:29:04 20.4 16 29.1
003B5CE9 2019-03-12 02:56:30 20.5 16 29.1
003B5CE9 2019-03-12 02:23:55 20.5 16 28.9
003B5CE9 2019-03-12 01:51:19 20.5 16 28.7
003B5CE9 2019-03-12 01:18:44 20.5 16 28.7
003B5CE9 2019-03-12 00:46:09 20.5 16 28.4
003B5CE9 2019-03-12 00:13:34 20.5 16 28.2
003B5CE9 2019-03-11 23:40:58 20.5 16 27.9
003B5CE9 2019-03-11 23:08:21 20.5 16 27.7
003B5CE9 2019-03-11 22:35:45 20.6 16 27.3
003B5CE9 2019-03-11 22:03:11 20.6 16 27
003B5CE9 2019-03-11 21:30:36 20.6 16 26.7
003B5CE9 2019-03-11 20:58:00 20.7 16 26.3
003B5CE9 2019-03-11 20:25:25 20.6 16 25.9
003B5CE9 2019-03-11 19:52:50 20.7 16 25.4
003B5CE9 2019-03-11 19:20:15 20.7 16 24.9
003B5CE9 2019-03-11 18:47:42 20.7 16 24.3
003B5CE9 2019-03-11 18:15:08 20.8 16 23.7
003B5CE9 2019-03-11 17:42:01 20.8 16 23
003B5CE9 2019-03-11 17:09:27 20.8 16 22.1
003B5CE9 2019-03-11 16:36:55 20.8 16 21.1
003B5CE9 2019-03-11 16:04:20 20.8 16 19.5
003B5CE9 2019-03-11 15:31:46 20.7 16 19.5
003B5CE9 2019-03-11 14:59:12 20.7 16 19.3
003B5CE9 2019-03-11 14:26:37 20.6 16 19.3
003B5CE9 2019-03-11 13:54:04 20.6 16 16.7
003B5CE9 2019-03-11 13:21:29 20.6 16 17.2
003B5CE9 2019-03-11 12:48:54 20.5 16 17.3
003B5CE9 2019-03-11 12:16:20 20.5 17 17.4
003B5CE9 2019-03-11 11:43:45 20.5 17 17.3
003B5CE9 2019-03-11 11:11:10 20.5 17 17.4
003B5CE9 2019-03-11 10:38:34 20.5 17 17.4
003B5CE9 2019-03-11 10:05:58 20.5 17 17.4
003B5CE9 2019-03-11 09:33:23 20.4 17 17.4
003B5CE9 2019-03-11 09:00:46 20.3 17 17.5
003B5CE9 2019-03-11 08:28:12 20.3 18 17.6
003B5CE9 2019-03-11 07:55:35 20.4 18 17.3
003B5CE9 2019-03-11 07:23:00 20.4 18 17.3
003B5CE9 2019-03-11 06:50:24 20.4 18 17.3
003B5CE9 2019-03-11 06:17:49 20.4 18 17.6
003B5CE9 2019-03-11 05:45:14 20.4 18 17.7
003B5CE9 2019-03-11 05:12:38 20.4 18 17.7
003B5CE9 2019-03-11 04:40:03 20.4 18 17.8
003B5CE9 2019-03-11 04:07:27 20.4 19 17.4
003B5CE9 2019-03-11 03:34:51 20.5 19 17
003B5CE9 2019-03-11 03:02:16 20.4 19 17
003B5CE9 2019-03-11 02:29:40 20.4 19 17.1
003B5CE9 2019-03-11 01:57:04 20.5 19 17.3
003B5CE9 2019-03-11 01:24:27 20.5 19 17.5
003B5CE9 2019-03-11 00:51:54 20.5 19 17.2
003B5CE9 2019-03-11 00:19:17 20.5 19 17.2
003B5CE9 2019-03-10 23:46:43 20.5 19 16.7
003B5CE9 2019-03-10 23:14:08 20.5 19 16.9
003B5CE9 2019-03-10 22:41:33 20.5 20 17
003B5CE9 2019-03-10 22:08:57 20.5 20 16.8
003B5CE9 2019-03-10 21:36:22 20.5 20 16.7
003B5CE9 2019-03-10 21:03:46 20.6 20 16.7
003B5CE9 2019-03-10 20:31:11 20.6 20 16.7
003B5CE9 2019-03-10 19:58:35 20.6 20 16.7
003B5CE9 2019-03-10 19:25:58 20.6 20 16.7
003B5CE9 2019-03-10 18:53:23 20.7 20 16.7
003B5CE9 2019-03-10 18:20:46 20.7 20 16.9
003B5CE9 2019-03-10 17:48:11 20.7 21 17
003B5CE9 2019-03-10 17:15:35 20.7 21 17
003B5CE9 2019-03-10 16:42:59 20.7 21 16.6
003B5CE9 2019-03-10 16:10:23 20.7 21 16.5
003B5CE9 2019-03-10 15:37:49 20.6 22 19.2
003B5CE9 2019-03-10 15:05:14 20.7 22 19.2
003B5CE9 2019-03-10 14:32:06 20.6 23 19.1
003B5CE9 2019-03-10 13:59:31 20.6 24 19.2
003B5CE9 2019-03-10 13:26:56 20.6 24 19
003B5CE9 2019-03-10 12:54:20 20.6 24 18.9
003B5CE9 2019-03-10 12:21:45 20.5 24 18.7
003B5CE9 2019-03-10 11:49:09 20.5 24 18.6
003B5CE9 2019-03-10 11:16:35 20.5 24 18.8
003B5CE9 2019-03-10 10:43:57 20.5 24 18.8
003B5CE9 2019-03-10 10:11:22 20.5 24 19
003B5CE9 2019-03-10 09:38:46 20.5 24 18.8
003B5CE9 2019-03-10 09:06:11 20.5 24 18.7
003B5CE9 2019-03-10 08:33:36 20.6 24 18.7
003B5CE9 2019-03-10 08:01:00 20.5 24 18.8
003B5CE9 2019-03-10 07:28:26 20.5 24 18.6
003B5CE9 2019-03-10 06:55:51 20.5 24 18.8
003B5CE9 2019-03-10 06:23:16 20.6 24 18.8
003B5CE9 2019-03-10 05:50:42 20.6 24 18.8
003B5CE9 2019-03-10 05:18:08 20.6 24 18.8
003B5CE9 2019-03-10 04:45:35 20.6 24 18.8
003B5CE9 2019-03-10 04:12:56 20.6 24 19
003B5CE9 2019-03-10 03:40:21 20.6 24 19.1
003B5CE9 2019-03-10 03:07:45 20.6 24 19.2
003B5CE9 2019-03-10 02:35:11 20.6 24 19.4
003B5CE9 2019-03-10 02:02:36 20.6 24 16.9
003B5CE9 2019-03-10 01:30:00 20.6 24 17.1
003B5CE9 2019-03-10 00:57:26 20.6 24 17.3
003B5CE9 2019-03-10 00:24:52 20.6 24 17.4
003B5CE9 2019-03-09 23:52:16 20.6 24 17.4
003B5CE9 2019-03-09 23:19:40 20.6 24 17.4
003B5CE9 2019-03-09 22:47:05 20.6 23 17.7
003B5CE9 2019-03-09 22:14:30 20.6 23 17.9
003B5CE9 2019-03-09 21:41:54 20.6 23 17.8
003B5CE9 2019-03-09 21:09:19 20.7 23 17.8
003B5CE9 2019-03-09 20:36:43 20.7 23 17.8
003B5CE9 2019-03-09 20:04:07 20.6 23 17.9
003B5CE9 2019-03-09 19:31:32 20.7 23 17.9
003B5CE9 2019-03-09 18:58:56 20.7 23 18
003B5CE9 2019-03-09 18:26:22 20.7 23 18
003B5CE9 2019-03-09 17:53:47 20.8 23 18.1
003B5CE9 2019-03-09 17:21:11 20.8 23 18.2
003B5CE9 2019-03-09 16:48:35 20.8 23 18.2
003B5CE9 2019-03-09 16:15:59 20.8 23 18.3
003B5CE9 2019-03-09 15:43:24 20.8 23 18.4
003B5CE9 2019-03-09 15:10:50 20.8 23 18.5
003B5CE9 2019-03-09 14:38:14 20.8 24 18.2
003B5CE9 2019-03-09 14:05:39 20.7 24 18.2
003B5CE9 2019-03-09 13:33:02 20.7 24 18.2
003B5CE9 2019-03-09 13:00:24 20.7 24 18.1
003B5CE9 2019-03-09 12:27:48 20.6 24 18.2
003B5CE9 2019-03-09 11:55:11 20.6 24 18.2
003B5CE9 2019-03-09 11:22:06 20.6 24 18.5
003B5CE9 2019-03-09 10:49:26 20.7 24 18.5
003B5CE9 2019-03-09 10:16:50 20.6 24 18.4
003B5CE9 2019-03-09 09:44:13 20.6 25 18.5
003B5CE9 2019-03-09 09:11:39 20.6 25 18.7
003B5CE9 2019-03-09 08:39:00 20.6 25 18.6
003B5CE9 2019-03-09 08:06:24 20.6 25 18.4
003B5CE9 2019-03-09 07:33:49 20.6 25 18.4
003B5CE9 2019-03-09 07:01:13 20.6 26 18.3
003B5CE9 2019-03-09 06:28:36 20.6 26 18.3
003B5CE9 2019-03-09 05:56:02 20.6 26 18.4
003B5CE9 2019-03-09 05:23:26 20.6 26 18.4
003B5CE9 2019-03-09 04:50:49 20.7 26 20.2
003B5CE9 2019-03-09 04:18:13 20.7 26 20.3
003B5CE9 2019-03-09 03:45:36 20.7 26 20.2
003B5CE9 2019-03-09 03:13:01 20.7 27 20.1
003B5CE9 2019-03-09 02:40:25 20.7 27 20.1
003B5CE9 2019-03-09 02:07:48 20.7 27 20.2
003B5CE9 2019-03-09 01:35:09 20.7 27 20.1
003B5CE9 2019-03-09 01:02:33 20.8 27 20.1
003B5CE9 2019-03-09 00:29:59 20.8 27 19.9
003B5CE9 2019-03-08 23:57:20 20.8 27 20
003B5CE9 2019-03-08 23:24:45 20.8 27 19.9
003B5CE9 2019-03-08 22:52:09 20.9 27 19.9
003B5CE9 2019-03-08 22:19:34 20.9 27 19.8
003B5CE9 2019-03-08 21:46:58 20.9 27 19.6
003B5CE9 2019-03-08 21:14:24 20.9 27 19.6
003B5CE9 2019-03-08 20:41:48 20.9 27 19.7
003B5CE9 2019-03-08 20:09:13 21 27 19.6
003B5CE9 2019-03-08 19:36:37 21 27 19.4
003B5CE9 2019-03-08 19:04:03 21 27 19.5
003B5CE9 2019-03-08 18:31:28 21 27 19.5
003B5CE9 2019-03-08 17:58:53 21.1 27 19.7
003B5CE9 2019-03-08 17:26:19 21.1 27 19.9
003B5CE9 2019-03-08 16:53:45 21.2 27 20
003B5CE9 2019-03-08 16:21:12 21.1 27 20
003B5CE9 2019-03-08 15:48:36 21.1 27 20.2
003B5CE9 2019-03-08 15:16:03 21 27 18.5
003B5CE9 2019-03-08 14:43:31 21 27 18.5
003B5CE9 2019-03-08 14:10:56 21 27 18.5
003B5CE9 2019-03-08 13:38:22 21 26 18.8
003B5CE9 2019-03-08 13:05:48 20.9 26 18.5
003B5CE9 2019-03-08 12:33:14 20.9 26 18.5
003B5CE9 2019-03-08 12:00:39 20.9 25 18.7
003B5CE9 2019-03-08 11:28:07 20.8 25 19
003B5CE9 2019-03-08 10:55:30 20.8 25 19.2
003B5CE9 2019-03-08 10:22:55 20.8 25 19.1
003B5CE9 2019-03-08 09:50:19 20.8 25 19.1
003B5CE9 2019-03-08 09:17:44 20.8 24 19.2
003B5CE9 2019-03-08 08:45:11 20.7 24 19.3
003B5CE9 2019-03-08 08:12:04 20.7 24 19.3
003B5CE9 2019-03-08 07:39:29 20.7 23 19.2
003B5CE9 2019-03-08 07:06:54 20.8 23 19.1
003B5CE9 2019-03-08 06:34:21 20.8 23 19.3
003B5CE9 2019-03-08 06:01:43 20.7 23 19.2
003B5CE9 2019-03-08 05:29:07 20.7 23 19.2
003B5CE9 2019-03-08 04:56:32 20.7 23 18.9
003B5CE9 2019-03-08 04:23:58 20.7 23 18.7
003B5CE9 2019-03-08 03:51:23 20.7 23 18.6
003B5CE9 2019-03-08 03:18:47 20.7 23 18.5
003B5CE9 2019-03-08 02:46:13 20.7 23 20.1
003B5CE9 2019-03-08 02:13:39 20.7 23 19.8
003B5CE9 2019-03-08 01:41:04 20.7 23 19.8
003B5CE9 2019-03-08 01:08:30 20.7 22 19.7
003B5CE9 2019-03-08 00:35:56 20.8 22 19.4
003B5CE9 2019-03-08 00:03:22 20.8 22 19.4
003B5CE9 2019-03-07 23:30:48 20.8 22 19.3
003B5CE9 2019-03-07 22:58:14 20.8 22 19.2
003B5CE9 2019-03-07 22:25:41 20.8 22 19
003B5CE9 2019-03-07 21:53:06 20.8 22 18.7
003B5CE9 2019-03-07 21:20:33 20.9 22 18.8
003B5CE9 2019-03-07 20:48:00 20.9 22 18.7
003B5CE9 2019-03-07 20:15:27 20.9 22 18.7
003B5CE9 2019-03-07 19:42:52 20.9 22 18.6
003B5CE9 2019-03-07 19:10:19 20.9 22 18.7
003B5CE9 2019-03-07 18:37:46 21 22 18.7
003B5CE9 2019-03-07 18:05:13 21.1 22 18.7
003B5CE9 2019-03-07 17:32:39 21.1 22 18.7
003B5CE9 2019-03-07 17:00:05 21.2 22 18.5
003B5CE9 2019-03-07 16:27:35 21.2 21 18.6
003B5CE9 2019-03-07 15:54:58 21.1 21 18.5
003B5CE9 2019-03-07 15:22:24 21.2 21 18.6
003B5CE9 2019-03-07 14:49:51 21.2 21 18.6
003B5CE9 2019-03-07 14:17:18 21.1 20 18.6
003B5CE9 2019-03-07 13:44:46 21 20 15.6
003B5CE9 2019-03-07 13:12:13 21 19 15.8
003B5CE9 2019-03-07 12:39:38 20.9 19 15.8
003B5CE9 2019-03-07 12:07:03 20.9 18 16.3
003B5CE9 2019-03-07 11:34:29 20.9 18 16.7
003B5CE9 2019-03-07 11:01:58 20.9 18 16.8
003B5CE9 2019-03-07 10:29:26 20.8 17 16.9
003B5CE9 2019-03-07 09:56:51 20.7 17 17
003B5CE9 2019-03-07 09:24:21 20.7 16 17
003B5CE9 2019-03-07 08:51:45 20.7 16 17.3
003B5CE9 2019-03-07 08:19:13 20.7 16 17.3
003B5CE9 2019-03-07 07:46:41 20.7 15 17.6
003B5CE9 2019-03-07 07:14:09 20.7 15 17.3
003B5CE9 2019-03-07 06:41:37 20.7 15 17.4
003B5CE9 2019-03-07 06:09:03 20.7 15 17.3
003B5CE9 2019-03-07 05:36:29 20.7 14 17.1
003B5CE9 2019-03-07 05:03:22 20.7 14 17.2
003B5CE9 2019-03-07 04:30:48 20.7 14 17.2
003B5CE9 2019-03-07 03:58:16 20.7 14 17.3
003B5CE9 2019-03-07 03:25:39 20.7 14 17.3
003B5CE9 2019-03-07 02:53:06 20.7 13 17.2
003B5CE9 2019-03-07 02:20:30 20.7 13 17.2
003B5CE9 2019-03-07 01:47:55 20.7 13 17.2
003B5CE9 2019-03-07 01:15:21 20.7 13 17
003B5CE9 2019-03-07 00:42:47 20.7 13 17
003B5CE9 2019-03-07 00:10:13 20.7 13 17
003B5CE9 2019-03-06 23:37:38 20.7 12 17
003B5CE9 2019-03-06 23:05:02 20.7 12 16.7
003B5CE9 2019-03-06 22:32:29 20.7 12 16.7
003B5CE9 2019-03-06 21:59:57 20.7 12 16.6
003B5CE9 2019-03-06 21:27:20 20.7 12 16.4
003B5CE9 2019-03-06 20:54:45 20.8 12 16.3
003B5CE9 2019-03-06 20:22:11 20.8 12 16
003B5CE9 2019-03-06 19:49:37 20.8 12 15.8
003B5CE9 2019-03-06 19:17:02 20.8 12 15.3
003B5CE9 2019-03-06 18:44:28 20.8 11 15.2
003B5CE9 2019-03-06 18:11:54 20.9 11 15
003B5CE9 2019-03-06 17:39:19 21 11 15
003B5CE9 2019-03-06 17:06:45 21 11 15
003B5CE9 2019-03-06 16:34:10 21 11 15.4
003B5CE9 2019-03-06 16:01:34 21 11 15.3
003B5CE9 2019-03-06 15:29:03 21.1 11 15.2
003B5CE9 2019-03-06 14:56:26 21.1 12 15.1
003B5CE9 2019-03-06 14:23:51 20.9 11 15.2
003B5CE9 2019-03-06 13:51:16 20.8 11 15.3
003B5CE9 2019-03-06 13:18:41 20.8 11 15.3
003B5CE9 2019-03-06 12:46:08 20.8 11 15.3
003B5CE9 2019-03-06 12:13:34 20.8 11 15.2
003B5CE9 2019-03-06 11:41:00 20.7 11 15.2
003B5CE9 2019-03-06 11:08:26 20.7 12 15.3
003B5CE9 2019-03-06 10:35:52 20.8 12 15.1
003B5CE9 2019-03-06 10:03:21 20.6 12 15
003B5CE9 2019-03-06 09:30:41 20.4 11 15
003B5CE9 2019-03-06 08:58:11 20.4 11 15.2
003B5CE9 2019-03-06 08:25:31 20.4 12 15.3
003B5CE9 2019-03-06 07:52:59 20.4 12 15.4
003B5CE9 2019-03-06 07:20:26 20.5 12 15.4
003B5CE9 2019-03-06 06:47:51 20.5 12 15.4
003B5CE9 2019-03-06 06:15:15 20.5 12 15.7
003B5CE9 2019-03-06 05:42:39 20.5 12 15.8
003B5CE9 2019-03-06 05:10:07 20.5 12 15.7
003B5CE9 2019-03-06 04:37:31 20.5 12 15.7
003B5CE9 2019-03-06 04:04:56 20.5 13 15.8
003B5CE9 2019-03-06 03:32:21 20.6 13 15.7
003B5CE9 2019-03-06 02:59:46 20.6 13 15.7
003B5CE9 2019-03-06 02:27:10 20.8 13 15.9
003B5CE9 2019-03-06 02:25:55 20.6 13 15.8
003B5CE9 2019-03-06 01:53:19 20.6 13 16.2
003B5CE9 2019-03-06 01:20:45 20.6 13 16.1
003B5CE9 2019-03-06 00:48:10 20.7 13 16.5
003B5CE9 2019-03-06 00:15:34 20.7 13 16.4
003B5CE9 2019-03-05 23:42:59 20.7 13 16.3
003B5CE9 2019-03-05 23:10:28 20.7 13 16.4
003B5CE9 2019-03-05 22:37:52 20.7 13 16.3
003B5CE9 2019-03-05 22:05:21 20.8 13 19.1
003B5CE9 2019-03-05 21:32:47 20.8 13 19
003B5CE9 2019-03-05 20:27:38 20.9 13 19
003B5CE9 2019-03-05 19:55:06 20.9 13 19.1
003B5CE9 2019-03-05 19:22:33 20.9 13 19.1
003B5CE9 2019-03-05 18:49:58 20.9 13 19
003B5CE9 2019-03-05 18:17:24 20.9 13 19.1
003B5CE9 2019-03-05 17:44:51 21 14 19.2
003B5CE9 2019-03-05 17:12:16 21.1 14 19.2
003B5CE9 2019-03-05 16:39:41 21.2 15 19.2
003B5CE9 2019-03-05 16:07:07 21.3 15 19.3
003B5CE9 2019-03-05 15:34:33 21.3 16 19.4
003B5CE9 2019-03-05 15:02:00 21 16 19.4
003B5CE9 2019-03-05 14:29:22 20.8 17 19.4
003B5CE9 2019-03-05 13:56:50 20.7 17 19.5
003B5CE9 2019-03-05 13:24:17 20.7 17 19.4
003B5CE9 2019-03-05 12:51:41 20.7 17 19.2
003B5CE9 2019-03-05 12:19:07 20.6 17 19.3
003B5CE9 2019-03-05 11:46:33 20.6 17 19.1
003B5CE9 2019-03-05 11:13:59 20.6 18 19.1
003B5CE9 2019-03-05 10:41:26 20.6 18 18.8
003B5CE9 2019-03-05 10:08:51 20.5 18 18.9
003B5CE9 2019-03-05 09:36:18 20.5 18 18.8
003B5CE9 2019-03-05 09:03:43 20.5 18 18.8
003B5CE9 2019-03-05 08:31:08 20.5 18 18.9
003B5CE9 2019-03-05 07:58:33 20.5 19 15.8
003B5CE9 2019-03-05 07:25:58 20.5 19 15.8
003B5CE9 2019-03-05 06:53:23 20.5 19 15.7
003B5CE9 2019-03-05 06:20:46 20.5 19 15.5
003B5CE9 2019-03-05 05:48:11 20.5 19 15.5
003B5CE9 2019-03-05 05:15:36 20.5 19 15.4
003B5CE9 2019-03-05 04:43:01 20.5 19 15.3
003B5CE9 2019-03-05 04:10:27 20.5 19 15
003B5CE9 2019-03-05 03:37:52 20.5 19 14.8
003B5CE9 2019-03-05 03:05:16 20.5 19 14.8
003B5CE9 2019-03-05 02:32:42 20.5 19 14.3
003B5CE9 2019-03-05 02:00:07 20.5 19 14.1
003B5CE9 2019-03-05 01:27:35 20.5 19 14.3
003B5CE9 2019-03-05 00:54:57 20.5 19 14.3
003B5CE9 2019-03-05 00:22:22 20.5 19 13.9
003B5CE9 2019-03-04 23:49:47 20.5 18 13.9
003B5CE9 2019-03-04 23:16:40 20.5 18 13.7
003B5CE9 2019-03-04 22:44:05 20.5 18 13.5
003B5CE9 2019-03-04 22:11:33 20.5 18 13.6
003B5CE9 2019-03-04 21:38:55 20.5 18 13.6
003B5CE9 2019-03-04 21:06:20 20.6 18 14.1
003B5CE9 2019-03-04 20:33:46 20.5 18 14.6
003B5CE9 2019-03-04 20:01:07 20.6 18 14.5
003B5CE9 2019-03-04 19:28:31 20.5 18 14.9
003B5CE9 2019-03-04 18:55:55 20.5 18 15
003B5CE9 2019-03-04 18:23:20 20.5 18 15
003B5CE9 2019-03-04 17:50:46 20.6 18 15
003B5CE9 2019-03-04 17:18:12 20.7 18 15.2
003B5CE9 2019-03-04 16:45:39 20.6 18 15.4
003B5CE9 2019-03-04 16:13:05 20.6 17 15.4
003B5CE9 2019-03-04 15:40:32 20.6 17 15.3
003B5CE9 2019-03-04 15:07:55 20.6 17 15.5
003B5CE9 2019-03-04 14:35:23 20.5 17 15.5
003B5CE9 2019-03-04 14:02:51 20.5 17 15.4
003B5CE9 2019-03-04 13:30:14 20.5 17 15.6
003B5CE9 2019-03-04 12:57:42 20.5 17 15.6
003B5CE9 2019-03-04 12:25:05 20.4 17 15.5
003B5CE9 2019-03-04 11:52:32 20.4 17 15.4
003B5CE9 2019-03-04 11:19:58 20.4 17 15.4
003B5CE9 2019-03-04 10:47:23 20.3 17 15.4
003B5CE9 2019-03-04 10:14:53 20.3 17 15.7
003B5CE9 2019-03-04 09:42:18 20.2 17 15.8
003B5CE9 2019-03-04 09:09:44 20.2 17 15.8
003B5CE9 2019-03-04 08:37:12 20.1 17 15.9
003B5CE9 2019-03-04 08:04:36 20 18 15.9
003B5CE9 2019-03-04 07:32:02 20 18 15.5
003B5CE9 2019-03-04 06:59:28 20.1 18 15.3
003B5CE9 2019-03-04 06:26:55 20.1 18 15.5
003B5CE9 2019-03-04 05:54:21 20.1 18 15
003B5CE9 2019-03-04 05:21:47 20.1 18 14.8
003B5CE9 2019-03-04 04:49:14 20.1 17 14.9
003B5CE9 2019-03-04 04:16:39 20.1 17 14.7
003B5CE9 2019-03-04 03:44:04 20.1 17 14.8
003B5CE9 2019-03-04 03:11:30 20.1 17 14.5
003B5CE9 2019-03-04 02:38:56 20.1 17 14.6
003B5CE9 2019-03-04 02:06:22 20.1 17 15.1
003B5CE9 2019-03-04 01:33:48 20.1 17 14.9
003B5CE9 2019-03-04 01:01:14 20.1 17 15.3
003B5CE9 2019-03-04 00:28:38 20.1 17 15.5
003B5CE9 2019-03-03 23:56:05 20.1 17 18.6
003B5CE9 2019-03-03 23:23:32 20.2 17 18.6
003B5CE9 2019-03-03 22:50:58 20.1 17 18.7
003B5CE9 2019-03-03 22:18:23 20.1 17 18.6
003B5CE9 2019-03-03 21:45:51 20.1 17 18.7
003B5CE9 2019-03-03 21:13:16 20.1 17 18.7
003B5CE9 2019-03-03 20:40:42 20.1 18 18.5
003B5CE9 2019-03-03 20:07:35 20.1 18 18.6
003B5CE9 2019-03-03 19:35:00 20.2 18 18.8
003B5CE9 2019-03-03 19:02:26 20.2 18 18.8
003B5CE9 2019-03-03 18:29:51 20.2 18 18.9
003B5CE9 2019-03-03 17:57:16 20.2 18 18.9
003B5CE9 2019-03-03 17:24:45 20.2 18 18.8
003B5CE9 2019-03-03 16:52:10 20.2 18 18.8
003B5CE9 2019-03-03 16:19:35 20.3 18 18.9
003B5CE9 2019-03-03 15:47:01 20.3 18 18.9
003B5CE9 2019-03-03 15:14:28 20.3 18 19
003B5CE9 2019-03-03 14:41:55 20.3 18 18.9
003B5CE9 2019-03-03 14:09:22 20.3 18 19
003B5CE9 2019-03-03 13:36:49 20.2 18 19.1
003B5CE9 2019-03-03 13:04:16 20.2 18 19
003B5CE9 2019-03-03 12:31:43 20.2 18 19
003B5CE9 2019-03-03 11:59:11 20.2 18 18.9
003B5CE9 2019-03-03 11:26:36 20.2 18 18.9
003B5CE9 2019-03-03 10:54:03 20.2 18 16
003B5CE9 2019-03-03 10:21:32 20.2 18 16.3
003B5CE9 2019-03-03 09:48:56 20.2 18 16.5
003B5CE9 2019-03-03 09:16:23 20.2 18 16.6
003B5CE9 2019-03-03 08:43:50 20.2 18 16.7
003B5CE9 2019-03-03 08:11:17 20.2 18 16.8
003B5CE9 2019-03-03 07:38:42 20.2 18 16.9
003B5CE9 2019-03-03 07:06:08 20.3 18 16.8
003B5CE9 2019-03-03 06:33:34 20.3 18 16.9
003B5CE9 2019-03-03 06:01:00 20.3 18 16.6
003B5CE9 2019-03-03 05:28:29 20.3 18 16.7
003B5CE9 2019-03-03 04:55:53 20.3 18 16.7
003B5CE9 2019-03-03 04:23:19 20.3 18 16.6
003B5CE9 2019-03-03 03:50:45 20.3 18 16.6
003B5CE9 2019-03-03 03:18:10 20.3 18 16.8
003B5CE9 2019-03-03 02:45:36 20.3 18 16.7
003B5CE9 2019-03-03 02:13:04 20.3 18 16.7
003B5CE9 2019-03-03 01:40:28 20.3 18 16.5
003B5CE9 2019-03-03 01:07:51 20.4 18 16.5
003B5CE9 2019-03-03 00:35:17 20.3 18 16.4
003B5CE9 2019-03-03 00:02:44 20.4 18 16.3
003B5CE9 2019-03-02 23:30:09 20.4 18 16.6
003B5CE9 2019-03-02 22:57:33 20.4 18 16.5
003B5CE9 2019-03-02 22:25:00 20.4 18 16.6
003B5CE9 2019-03-02 21:52:27 20.4 17 16.8
003B5CE9 2019-03-02 21:19:52 20.4 17 17
003B5CE9 2019-03-02 20:47:17 20.4 17 16.9
003B5CE9 2019-03-02 20:14:42 20.4 17 16.7
003B5CE9 2019-03-02 19:42:08 20.4 17 16.7
003B5CE9 2019-03-02 19:09:35 20.5 17 16.7
003B5CE9 2019-03-02 18:37:02 20.5 17 16.8
003B5CE9 2019-03-02 18:04:28 20.5 17 17
003B5CE9 2019-03-02 17:31:57 20.6 17 17
003B5CE9 2019-03-02 16:58:50 20.6 17 16.7
003B5CE9 2019-03-02 16:26:17 20.6 17 16.7
003B5CE9 2019-03-02 15:53:43 20.7 16 16.9
003B5CE9 2019-03-02 15:21:10 20.7 16 16.9
003B5CE9 2019-03-02 14:48:39 20.4 16 16.9
003B5CE9 2019-03-02 14:16:03 20.4 16 16.7
003B5CE9 2019-03-02 13:43:29 20.4 16 16.9
003B5CE9 2019-03-02 13:10:56 20.4 16 16.9
003B5CE9 2019-03-02 12:38:22 20.4 16 17.1
003B5CE9 2019-03-02 12:05:50 20.4 16 17.4
003B5CE9 2019-03-02 11:33:18 20.4 16 17.5
003B5CE9 2019-03-02 11:00:44 20.4 16 17.5
003B5CE9 2019-03-02 10:28:10 20.4 15 17.2
003B5CE9 2019-03-02 09:55:35 20.4 15 17.2
003B5CE9 2019-03-02 09:23:01 20.4 15 17.1
003B5CE9 2019-03-02 08:50:26 20.4 15 16.8
003B5CE9 2019-03-02 08:17:51 20.4 15 16.5
003B5CE9 2019-03-02 07:45:16 20.4 15 16.4
003B5CE9 2019-03-02 07:12:44 20.4 15 16.5
003B5CE9 2019-03-02 06:40:09 20.4 15 16.5
003B5CE9 2019-03-02 06:07:35 20.4 15 16.3
003B5CE9 2019-03-02 05:35:00 20.4 15 16
003B5CE9 2019-03-02 05:02:26 20.5 15 15.8
003B5CE9 2019-03-02 04:29:52 20.5 14 15.7
003B5CE9 2019-03-02 03:57:17 20.5 14 15.7
003B5CE9 2019-03-02 03:24:43 20.5 14 15.8
003B5CE9 2019-03-02 02:52:09 20.6 14 15.7
003B5CE9 2019-03-02 02:19:35 20.6 14 15.3
003B5CE9 2019-03-02 01:47:01 20.6 14 15.5
003B5CE9 2019-03-02 01:14:27 20.6 14 15.5
003B5CE9 2019-03-02 00:41:54 20.7 14 15.6
003B5CE9 2019-03-02 00:09:21 20.7 14 15.4
003B5CE9 2019-03-01 23:36:47 20.7 13 15.8
003B5CE9 2019-03-01 23:04:14 20.8 13 15.6
003B5CE9 2019-03-01 22:31:39 20.8 13 15
003B5CE9 2019-03-01 21:59:05 20.9 13 14.9
003B5CE9 2019-03-01 21:26:32 21 13 14.4
003B5CE9 2019-03-01 20:54:00 21.1 13 14.3
003B5CE9 2019-03-01 20:21:27 21 13 14.3
003B5CE9 2019-03-01 19:48:52 21 13 14.3
003B5CE9 2019-03-01 19:16:20 21 13 14.2
003B5CE9 2019-03-01 18:43:47 21 12 14.3
003B5CE9 2019-03-01 18:11:12 21.1 13 14.2
003B5CE9 2019-03-01 17:38:39 21.2 13 13.8
003B5CE9 2019-03-01 17:06:06 21.4 13 13.4
003B5CE9 2019-03-01 16:33:32 21.5 14 13.4
003B5CE9 2019-03-01 16:01:00 21.4 14 13
003B5CE9 2019-03-01 14:55:52 21.2 15 13.2
003B5CE9 2019-03-01 14:23:17 21 15 13.1
003B5CE9 2019-03-01 13:50:08 21 15 13.2
003B5CE9 2019-03-01 13:17:35 20.9 15 13.2
003B5CE9 2019-03-01 12:44:59 21 16 13
003B5CE9 2019-03-01 12:12:24 21.1 16 13
003B5CE9 2019-03-01 11:39:50 21.1 16 13
003B5CE9 2019-03-01 11:07:16 21.1 17 12.7
003B5CE9 2019-03-01 10:34:47 21 17 12.5
003B5CE9 2019-03-01 10:02:09 20.8 17 12.4
003B5CE9 2019-03-01 09:29:36 20.7 17 11.2
003B5CE9 2019-03-01 08:57:02 20.6 17 11
003B5CE9 2019-03-01 08:24:28 20.5 17 11.5
003B5CE9 2019-03-01 07:51:54 20.6 18 12.4
003B5CE9 2019-03-01 07:19:21 20.6 18 12.3
003B5CE9 2019-03-01 06:46:48 20.6 18 12.8
003B5CE9 2019-03-01 06:14:15 20.6 18 12.8
003B5CE9 2019-03-01 05:41:42 20.6 19 12.7
003B5CE9 2019-03-01 05:09:11 20.6 19 12.8
003B5CE9 2019-03-01 04:36:34 20.6 19 13.1
003B5CE9 2019-03-01 04:04:03 20.7 19 13
003B5CE9 2019-03-01 03:31:25 20.6 20 13.1
003B5CE9 2019-03-01 02:58:50 20.7 20 13.1
003B5CE9 2019-03-01 02:26:16 20.6 20 13.3
003B5CE9 2019-03-01 01:53:44 20.7 20 13.8
003B5CE9 2019-03-01 01:21:12 20.7 21 14.2
003B5CE9 2019-03-01 00:48:37 20.7 21 14.2
003B5CE9 2019-03-01 00:16:02 20.7 21 14.3
003B5CE9 2019-02-28 23:43:32 20.7 22 14.8
003B5CE9 2019-02-28 23:10:55 20.8 22 14.9
003B5CE9 2019-02-28 22:38:20 20.8 22 15.4
003B5CE9 2019-02-28 22:05:50 20.8 22 15.4
003B5CE9 2019-02-28 20:28:10 20.9 23 15.7
003B5CE9 2019-02-28 19:55:35 20.9 23 15.9
003B5CE9 2019-02-28 19:23:02 21 23 16.1
003B5CE9 2019-02-28 18:50:26 21 24 16.1
003B5CE9 2019-02-28 18:17:55 21.1 24 16.5
003B5CE9 2019-02-28 17:45:21 21.3 25 16.7
003B5CE9 2019-02-28 16:40:12 21.5 26 16.7
003B5CE9 2019-02-28 16:07:39 21.5 26 19.4
003B5CE9 2019-02-28 15:35:06 21.4 25 19.3
003B5CE9 2019-02-28 15:02:31 21.3 25 19.3
003B5CE9 2019-02-28 14:29:56 21.4 25 19.3
003B5CE9 2019-02-28 13:57:26 21.4 25 19.3
003B5CE9 2019-02-28 13:24:48 21.4 24 19.2
003B5CE9 2019-02-28 12:52:15 21.4 24 19.2
003B5CE9 2019-02-28 12:19:41 21.4 24 19.5
003B5CE9 2019-02-28 10:41:32 21.1 23 19.5
003B5CE9 2019-02-28 09:36:23 20.9 22 19.7
003B5CE9 2019-02-28 09:03:49 20.8 22 19.6
003B5CE9 2019-02-28 08:31:16 20.8 22 19.7
003B5CE9 2019-02-28 07:58:42 20.7 22 19.7
003B5CE9 2019-02-28 07:26:12 20.7 22 19.5
003B5CE9 2019-02-28 06:53:36 20.8 22 19.7
003B5CE9 2019-02-28 06:21:03 20.8 22 19.8
003B5CE9 2019-02-28 05:48:29 20.8 22 19.7
003B5CE9 2019-02-28 05:15:58 20.8 22 19.8
003B5CE9 2019-02-28 04:43:25 20.8 22 19.9
003B5CE9 2019-02-28 04:10:49 20.8 22 20
003B5CE9 2019-02-28 03:38:14 20.8 22 20
003B5CE9 2019-02-28 03:05:40 20.8 22 20.1
003B5CE9 2019-02-28 02:33:08 20.8 22 20
003B5CE9 2019-02-28 02:00:32 20.8 22 21.3
003B5CE9 2019-02-28 01:27:56 20.8 22 20.2
003B5CE9 2019-02-28 00:55:20 20.9 22 20.5
003B5CE9 2019-02-28 00:22:47 20.9 22 20.6
003B5CE9 2019-02-27 23:50:12 20.9 22 20.7
003B5CE9 2019-02-27 22:45:07 21 22 21
003B5CE9 2019-02-27 22:12:30 21 23 21.3
003B5CE9 2019-02-27 21:39:56 21 23 21.5
003B5CE9 2019-02-27 21:07:22 21.1 23 21.5
003B5CE9 2019-02-27 20:34:49 21.1 23 22.5
003B5CE9 2019-02-27 20:02:17 21.2 23 22.7
003B5CE9 2019-02-27 19:29:42 21.2 23 22.8
003B5CE9 2019-02-27 18:57:08 21.2 23 22.9
003B5CE9 2019-02-27 18:24:37 21.4 23 23.7
003B5CE9 2019-02-27 17:52:01 21.6 24 23.8
003B5CE9 2019-02-27 17:19:29 21.8 25 23.9
003B5CE9 2019-02-27 16:46:56 21.9 25 23.9
003B5CE9 2019-02-27 16:14:20 21.8 26 23.8
003B5CE9 2019-02-27 15:41:50 21.8 26 23.8
003B5CE9 2019-02-27 15:09:16 21.7 26 23.9
003B5CE9 2019-02-27 14:36:41 21.6 26 23.9
003B5CE9 2019-02-27 14:04:07 21.4 26 24
003B5CE9 2019-02-27 13:31:32 21.3 25 24.1
003B5CE9 2019-02-27 12:59:00 21.3 25 24.2
003B5CE9 2019-02-27 12:26:26 21.4 25 24.2
003B5CE9 2019-02-27 11:53:52 21.3 25 23.5
003B5CE9 2019-02-27 11:21:19 21.3 25 23.6
003B5CE9 2019-02-27 10:48:45 21.2 25 23.5
003B5CE9 2019-02-27 10:16:11 21.1 25 23.6
003B5CE9 2019-02-27 09:43:38 21 25 23.7
003B5CE9 2019-02-27 09:11:04 20.9 24 23.6
003B5CE9 2019-02-27 08:38:29 20.9 24 23.6
003B5CE9 2019-02-27 08:05:55 20.9 24 23.5
003B5CE9 2019-02-27 07:32:48 20.9 23 22.8
003B5CE9 2019-02-27 07:00:14 20.9 23 22.8
003B5CE9 2019-02-27 06:27:39 20.9 23 23.5
003B5CE9 2019-02-27 05:55:05 20.9 23 22.7
003B5CE9 2019-02-27 05:22:30 21 23 22.7
003B5CE9 2019-02-27 04:49:56 21 23 22.7
003B5CE9 2019-02-27 04:17:22 21 23 22.6
003B5CE9 2019-02-27 03:44:48 21 23 22.7
003B5CE9 2019-02-27 03:12:14 21 23 22.7
003B5CE9 2019-02-27 02:39:40 21 23 22.7
003B5CE9 2019-02-27 02:07:06 21.1 23 22.7
003B5CE9 2019-02-27 01:34:36 21.1 23 22.7
003B5CE9 2019-02-27 01:01:59 21.1 23 22.7
003B5CE9 2019-02-27 00:29:25 21.2 23 22.6
003B5CE9 2019-02-26 23:56:51 21.2 24 22.6
003B5CE9 2019-02-26 23:24:18 21.2 24 22.5
003B5CE9 2019-02-26 22:51:40 21.3 24 22.4
003B5CE9 2019-02-26 22:19:06 21.3 24 22.3
003B5CE9 2019-02-26 21:46:31 21.4 24 23
003B5CE9 2019-02-26 21:13:56 21.4 24 23.7
003B5CE9 2019-02-26 20:41:22 21.5 24 24.3
003B5CE9 2019-02-26 20:08:49 21.6 24 24.8
003B5CE9 2019-02-26 19:36:16 21.6 24 25.3
003B5CE9 2019-02-26 19:03:42 21.7 24 25.7
003B5CE9 2019-02-26 18:31:08 21.8 24 26.1
003B5CE9 2019-02-26 17:58:35 22 24 26.4
003B5CE9 2019-02-26 17:26:02 22.1 24 26.7
003B5CE9 2019-02-26 16:53:30 22.1 24 26.7
003B5CE9 2019-02-26 16:20:56 22.1 25 27
003B5CE9 2019-02-26 15:48:22 22 25 27.3
003B5CE9 2019-02-26 15:15:49 21.8 25 27.6
003B5CE9 2019-02-26 14:43:15 21.7 25 27.9
003B5CE9 2019-02-26 14:10:43 21.7 25 28.1
003B5CE9 2019-02-26 13:38:09 21.7 25 28.3
003B5CE9 2019-02-26 13:05:35 21.6 25 28.5
003B5CE9 2019-02-26 12:33:02 21.6 25 28.7
003B5CE9 2019-02-26 12:00:30 21.5 25 28.9
003B5CE9 2019-02-26 11:27:57 21.4 25 29.1
003B5CE9 2019-02-26 10:55:25 21.4 25 29.3
003B5CE9 2019-02-26 10:22:51 21.2 24 29.5
003B5CE9 2019-02-26 09:50:20 21.1 24 29.7
003B5CE9 2019-02-26 09:17:45 21 24 29.8
003B5CE9 2019-02-26 08:45:12 20.9 23 30
003B5CE9 2019-02-26 08:12:39 20.9 23 30
003B5CE9 2019-02-26 07:40:07 20.9 23 30
003B5CE9 2019-02-26 07:07:35 20.9 23 30
003B5CE9 2019-02-26 06:35:02 20.9 23 30
003B5CE9 2019-02-26 06:02:30 20.9 23 30
003B5CE9 2019-02-26 05:29:57 20.9 23 30
003B5CE9 2019-02-26 04:57:26 20.9 22 29.8
003B5CE9 2019-02-26 04:24:21 20.9 22 29.7
003B5CE9 2019-02-26 03:51:50 20.9 22 29.5
003B5CE9 2019-02-26 03:19:19 21 22 29.3
003B5CE9 2019-02-26 02:46:48 21 22 29.1
003B5CE9 2019-02-26 02:14:15 21 22 28.9
003B5CE9 2019-02-26 01:41:42 21 22 28.7
003B5CE9 2019-02-26 01:09:10 21 22 28.5
003B5CE9 2019-02-26 00:36:39 21 21 28.2
003B5CE9 2019-02-26 00:04:03 21.1 21 28.2
003B5CE9 2019-02-25 23:31:31 21.1 21 28
003B5CE9 2019-02-25 22:58:58 21.1 21 27.7
003B5CE9 2019-02-25 22:26:24 21.2 21 27.4
003B5CE9 2019-02-25 21:53:51 21.2 21 27.1
003B5CE9 2019-02-25 21:21:19 21.3 21 26.8
003B5CE9 2019-02-25 20:48:47 21.3 21 26.5
003B5CE9 2019-02-25 20:16:15 21.4 21 26.1
003B5CE9 2019-02-25 19:43:42 21.5 21 25.7
003B5CE9 2019-02-25 19:11:09 21.5 21 25.3
003B5CE9 2019-02-25 18:38:37 21.6 21 24.8
003B5CE9 2019-02-25 18:06:04 21.7 21 24.2
003B5CE9 2019-02-25 17:33:30 21.7 21 23.7
003B5CE9 2019-02-25 17:00:57 21.7 22 23
003B5CE9 2019-02-25 16:28:25 21.8 22 22.3
003B5CE9 2019-02-25 15:55:52 21.8 22 22.4
003B5CE9 2019-02-25 15:23:20 21.8 22 22.5
003B5CE9 2019-02-25 14:50:48 21.7 23 21.9
003B5CE9 2019-02-25 14:18:15 21.6 22 22
003B5CE9 2019-02-25 13:45:42 21.5 22 22
003B5CE9 2019-02-25 13:13:08 21.3 22 21.9
003B5CE9 2019-02-25 12:40:34 21.3 22 22
003B5CE9 2019-02-25 12:08:01 21.3 22 22.1
003B5CE9 2019-02-25 11:35:28 21.2 23 22.3
003B5CE9 2019-02-25 11:02:55 21.1 23 21.4
003B5CE9 2019-02-25 10:30:20 21 23 21.2
003B5CE9 2019-02-25 09:57:45 20.8 22 21.3
003B5CE9 2019-02-25 09:25:10 20.7 22 21.5
003B5CE9 2019-02-25 08:52:36 20.7 22 21.6
003B5CE9 2019-02-25 08:20:00 20.6 22 21.5
003B5CE9 2019-02-25 07:47:25 20.6 22 21.7
003B5CE9 2019-02-25 07:14:51 20.6 22 21.8
003B5CE9 2019-02-25 06:42:18 20.6 22 21.7
003B5CE9 2019-02-25 06:09:45 20.7 22 21.9
003B5CE9 2019-02-25 05:37:12 20.6 22 22.7
003B5CE9 2019-02-25 05:04:39 20.7 22 22.8
003B5CE9 2019-02-25 04:32:03 20.6 22 22.8
003B5CE9 2019-02-25 03:59:30 20.7 22 22.7
003B5CE9 2019-02-25 03:26:56 20.7 22 22.6
003B5CE9 2019-02-25 02:54:22 20.7 22 22.4
003B5CE9 2019-02-25 02:21:47 20.7 22 22.4
003B5CE9 2019-02-25 01:49:13 20.7 22 22.4
003B5CE9 2019-02-25 01:16:06 20.7 23 22.4
003B5CE9 2019-02-25 00:43:32 20.7 23 22.4
003B5CE9 2019-02-25 00:10:58 20.7 23 22.4
003B5CE9 2019-02-24 23:38:23 20.7 23 22.4
003B5CE9 2019-02-24 23:05:49 20.7 24 22.2
003B5CE9 2019-02-24 22:33:14 20.7 24 22.3
003B5CE9 2019-02-24 22:00:40 20.7 24 22.3
003B5CE9 2019-02-24 21:28:07 20.7 24 22.2
003B5CE9 2019-02-24 20:55:32 20.8 24 22.4
003B5CE9 2019-02-24 20:22:59 20.8 24 22.5
003B5CE9 2019-02-24 19:50:25 20.8 24 22.6
003B5CE9 2019-02-24 19:17:49 20.8 24 22.6
003B5CE9 2019-02-24 18:45:16 20.8 24 22.8
003B5CE9 2019-02-24 18:12:42 20.8 23 22.8
003B5CE9 2019-02-24 17:40:08 20.8 23 22.8
003B5CE9 2019-02-24 17:07:36 20.8 23 22.7
003B5CE9 2019-02-24 16:34:59 20.8 23 22.7
003B5CE9 2019-02-24 16:02:26 20.8 23 21.9
003B5CE9 2019-02-24 15:29:52 20.8 23 21.9
003B5CE9 2019-02-24 14:57:17 20.8 23 21.9
003B5CE9 2019-02-24 14:24:45 20.8 23 21.9
003B5CE9 2019-02-24 13:52:11 20.8 23 21.8
003B5CE9 2019-02-24 13:19:37 20.8 22 22
003B5CE9 2019-02-24 12:47:04 20.8 22 22
003B5CE9 2019-02-24 12:14:30 20.8 22 22
003B5CE9 2019-02-24 11:41:57 20.8 22 21.9
003B5CE9 2019-02-24 11:09:23 20.8 22 22.1
003B5CE9 2019-02-24 10:36:48 20.8 22 22.1
003B5CE9 2019-02-24 10:04:15 20.8 22 22.1
003B5CE9 2019-02-24 09:31:44 20.8 22 22.1
003B5CE9 2019-02-24 08:59:08 20.7 22 22.1
003B5CE9 2019-02-24 08:26:35 20.8 22 22.2
003B5CE9 2019-02-24 07:54:01 20.8 22 22.3
003B5CE9 2019-02-24 07:21:27 20.8 22 22.1
003B5CE9 2019-02-24 06:48:55 20.8 22 22.1
003B5CE9 2019-02-24 06:16:19 20.9 22 22.1
003B5CE9 2019-02-24 05:43:44 20.8 21 22
003B5CE9 2019-02-24 05:11:10 20.9 21 22.1
003B5CE9 2019-02-24 04:38:38 20.9 21 21.8
003B5CE9 2019-02-24 04:06:04 20.9 21 21.8
003B5CE9 2019-02-24 03:33:31 20.9 21 22
003B5CE9 2019-02-24 03:01:00 20.9 21 21.8
003B5CE9 2019-02-24 02:28:25 20.9 21 21.7
003B5CE9 2019-02-24 01:55:50 20.9 21 21.7
003B5CE9 2019-02-24 01:23:17 21 21 21.6
003B5CE9 2019-02-24 00:50:41 21 21 21.5
003B5CE9 2019-02-24 00:18:07 21 21 21.6
003B5CE9 2019-02-23 23:45:32 21 21 21.4
003B5CE9 2019-02-23 23:12:57 21 21 21.3
003B5CE9 2019-02-23 22:40:24 21 21 21.3
003B5CE9 2019-02-23 22:07:17 21 20 21.2
003B5CE9 2019-02-23 21:34:43 21.1 20 21.3
003B5CE9 2019-02-23 21:02:10 21.1 20 21.3
003B5CE9 2019-02-23 20:29:37 21.1 20 21.6
003B5CE9 2019-02-23 19:57:00 21.2 20 21.6
003B5CE9 2019-02-23 19:24:27 21.2 19 21.4
003B5CE9 2019-02-23 18:51:53 21.2 19 21.3
003B5CE9 2019-02-23 18:19:20 21.3 19 21.4
003B5CE9 2019-02-23 17:46:49 21.3 19 21.1
003B5CE9 2019-02-23 17:14:14 21.3 18 21
003B5CE9 2019-02-23 16:41:40 21.3 18 20.9
003B5CE9 2019-02-23 16:09:07 21.3 18 20.6
003B5CE9 2019-02-23 15:36:34 21.2 18 20.6
003B5CE9 2019-02-23 15:04:00 21 17 20.8
003B5CE9 2019-02-23 14:31:27 21 17 20.5
003B5CE9 2019-02-23 13:58:56 20.9 17 20.6
003B5CE9 2019-02-23 13:26:22 20.9 17 20.6
003B5CE9 2019-02-23 12:53:48 20.9 17 20.5
003B5CE9 2019-02-23 12:21:15 20.9 16 20.4
003B5CE9 2019-02-23 11:48:42 20.9 16 20.6
003B5CE9 2019-02-23 11:16:06 20.9 16 20.5
003B5CE9 2019-02-23 10:43:34 20.9 16 20.6
003B5CE9 2019-02-23 10:11:02 20.9 16 20.4
003B5CE9 2019-02-23 09:38:30 20.9 15 20.2
003B5CE9 2019-02-23 09:05:56 20.9 15 20.2
003B5CE9 2019-02-23 08:33:24 20.9 15 20
003B5CE9 2019-02-23 08:00:49 20.9 15 19.7
003B5CE9 2019-02-23 07:28:17 20.9 14 20
003B5CE9 2019-02-23 06:55:44 20.9 14 19.7
003B5CE9 2019-02-23 06:23:11 20.9 14 19.4
003B5CE9 2019-02-23 05:50:39 20.9 14 19.4
003B5CE9 2019-02-23 05:18:06 20.8 13 19.4
003B5CE9 2019-02-23 04:45:34 20.9 13 19.2
003B5CE9 2019-02-23 04:13:01 20.9 13 20.8
003B5CE9 2019-02-23 03:40:30 20.9 13 20.9
003B5CE9 2019-02-23 03:07:57 20.9 12 21
003B5CE9 2019-02-23 02:35:25 20.9 12 21
003B5CE9 2019-02-23 02:02:53 20.9 12 21.2
003B5CE9 2019-02-23 01:30:20 20.9 12 21.2
003B5CE9 2019-02-23 00:57:47 20.9 12 21.1
003B5CE9 2019-02-23 00:25:14 20.9 11 21.2
003B5CE9 2019-02-22 23:52:41 20.9 11 21.1
003B5CE9 2019-02-22 23:20:09 21 11 21.3
003B5CE9 2019-02-22 22:47:37 21 11 21.5
003B5CE9 2019-02-22 22:15:02 21 11 21.3
003B5CE9 2019-02-22 21:42:29 21.1 11 21.4
003B5CE9 2019-02-22 21:09:56 21 11 22.4
003B5CE9 2019-02-22 20:37:24 21.1 11 22.5
003B5CE9 2019-02-22 20:04:51 21.1 11 22.6
003B5CE9 2019-02-22 19:32:17 21.2 10 22.5
003B5CE9 2019-02-22 18:59:17 21.2 10 22.4
003B5CE9 2019-02-22 18:48:21 21.2 10 22.3
003B5CE9 2019-02-22 18:37:23 21.3 10 22.4
003B5CE9 2019-02-22 18:26:26 21.3 10 22.4
003B5CE9 2019-02-22 18:15:30 21.3 10 22.4
003B5CE9 2019-02-22 18:04:33 21.3 10 22.5
003B5CE9 2019-02-22 17:53:36 21.3 10 22.6
003B5CE9 2019-02-22 17:42:39 21.4 11 21.5
003B5CE9 2019-02-22 17:31:41 21.4 11 21.5
003B5CE9 2019-02-22 17:20:45 21.4 11 21.3
003B5CE9 2019-02-22 17:09:48 21.4 11 21.4
003B5CE9 2019-02-22 16:58:50 21.4 11 21.4
003B5CE9 2019-02-22 16:47:53 21.4 11 21.4
003B5CE9 2019-02-22 16:36:57 21.4 11 21.5
003B5CE9 2019-02-22 16:26:00 21.4 11 21.4
003B5CE9 2019-02-22 16:15:03 21.4 11 21.4
003B5CE9 2019-02-22 16:04:05 21.4 11 21.3
003B5CE9 2019-02-22 15:53:09 21.4 11 21.3
003B5CE9 2019-02-22 15:42:12 21.4 11 21.4
003B5CE9 2019-02-22 15:31:15 21.3 11 21.3
003B5CE9 2019-02-22 15:20:18 21.2 12 20.1
003B5CE9 2019-02-22 15:09:21 21.2 12 20
003B5CE9 2019-02-22 14:58:23 21.1 12 20.1
003B5CE9 2019-02-22 14:47:27 21.1 12 20.1
003B5CE9 2019-02-22 14:36:31 21.1 12 20.1
003B5CE9 2019-02-22 14:25:37 21.1 12 20.3
003B5CE9 2019-02-22 14:14:35 21 12 20.1
003B5CE9 2019-02-22 14:03:38 21 12 19.9
003B5CE9 2019-02-22 13:52:43 21 12 19.9
003B5CE9 2019-02-22 13:41:46 21 12 21.3
003B5CE9 2019-02-22 13:30:46 21 12 21
003B5CE9 2019-02-22 13:19:50 21 12 20.8
003B5CE9 2019-02-22 13:08:52 20.9 12 20.9
003B5CE9 2019-02-22 12:57:54 21 12 20.8
003B5CE9 2019-02-22 12:46:59 20.9 12 20.9
003B5CE9 2019-02-22 12:36:00 20.9 12 20.9
003B5CE9 2019-02-22 12:25:03 20.9 12 20.8
003B5CE9 2019-02-22 12:14:05 20.9 12 20.9
003B5CE9 2019-02-22 12:03:09 20.9 12 20.9
003B5CE9 2019-02-22 11:52:12 20.9 12 21
003B5CE9 2019-02-22 11:41:15 20.9 12 21
003B5CE9 2019-02-22 11:30:17 20.9 12 21.2
003B5CE9 2019-02-22 11:19:19 20.8 12 21.3
003B5CE9 2019-02-22 11:08:22 20.8 12 21.1
003B5CE9 2019-02-22 10:57:27 20.7 12 21.4
003B5CE9 2019-02-22 10:46:28 20.7 12 21.4
003B5CE9 2019-02-22 10:35:30 20.7 12 21.5
003B5CE9 2019-02-22 10:24:33 20.6 12 21.3
003B5CE9 2019-02-22 10:13:36 20.6 12 21.5
003B5CE9 2019-02-22 10:02:39 20.6 12 21.5
003B5CE9 2019-02-22 09:51:06 20.6 12 21.8
003B5CE9 2019-02-22 09:40:09 20.5 12 21.9
003B5CE9 2019-02-22 09:29:12 20.5 12 22.1
003B5CE9 2019-02-22 09:18:14 20.5 12 21.1
003B5CE9 2019-02-22 09:07:17 20.5 12 21.2
003B5CE9 2019-02-22 08:56:21 20.5 12 21.5
003B5CE9 2019-02-22 08:45:23 20.5 12 21.7
003B5CE9 2019-02-22 08:34:26 20.5 12 21.8
003B5CE9 2019-02-22 08:23:28 20.5 12 21.8
003B5CE9 2019-02-22 08:12:32 20.5 12 21.7
003B5CE9 2019-02-22 08:01:34 20.5 12 21.7
003B5CE9 2019-02-22 07:50:38 20.5 12 21.5
003B5CE9 2019-02-22 07:39:40 20.5 12 21.6
003B5CE9 2019-02-22 07:28:43 20.5 12 21.7
003B5CE9 2019-02-22 07:17:47 20.5 12 21.7
003B5CE9 2019-02-22 07:06:48 20.5 12 21.5
003B5CE9 2019-02-22 06:55:50 20.5 12 21.2
003B5CE9 2019-02-22 06:44:52 20.6 12 21.2
003B5CE9 2019-02-22 06:33:55 20.5 12 21
003B5CE9 2019-02-22 06:22:58 20.6 12 21
003B5CE9 2019-02-22 06:12:01 20.6 12 21
003B5CE9 2019-02-22 06:01:05 20.6 12 21
003B5CE9 2019-02-22 05:50:08 20.6 12 20.7
003B5CE9 2019-02-22 05:39:11 20.6 12 20.9
003B5CE9 2019-02-22 05:28:15 20.6 12 20.8
003B5CE9 2019-02-22 05:17:18 20.6 12 20.7
003B5CE9 2019-02-22 05:06:21 20.6 12 20.4
003B5CE9 2019-02-22 04:55:24 20.6 12 20.2
003B5CE9 2019-02-22 04:44:27 20.6 12 19.9
003B5CE9 2019-02-22 04:33:30 20.6 12 19.8
003B5CE9 2019-02-22 04:22:32 20.6 12 19.6
003B5CE9 2019-02-22 04:11:36 20.6 12 19.1
003B5CE9 2019-02-22 04:00:39 20.6 12 18.9
003B5CE9 2019-02-22 03:49:44 20.6 12 18.6
003B5CE9 2019-02-22 03:38:45 20.6 12 19.1
003B5CE9 2019-02-22 03:27:47 20.6 12 19.1
003B5CE9 2019-02-22 03:16:51 20.6 12 19.1
003B5CE9 2019-02-22 03:05:54 20.7 12 18.9
003B5CE9 2019-02-22 02:54:57 20.6 12 18.7
003B5CE9 2019-02-22 02:44:00 20.7 12 18.7
003B5CE9 2019-02-22 02:33:04 20.7 12 18.6
003B5CE9 2019-02-22 02:22:06 20.6 12 18.7
003B5CE9 2019-02-22 02:11:10 20.7 12 18.8
003B5CE9 2019-02-22 02:00:12 20.7 12 18.9
003B5CE9 2019-02-22 01:49:15 20.7 12 18.8
003B5CE9 2019-02-22 01:38:18 20.7 12 18.6
003B5CE9 2019-02-22 01:27:21 20.7 12 19.1
003B5CE9 2019-02-22 01:16:24 20.7 12 19.1
003B5CE9 2019-02-22 01:05:27 20.7 12 19
003B5CE9 2019-02-22 00:54:32 20.7 12 19
003B5CE9 2019-02-22 00:42:59 20.7 12 18.9
003B5CE9 2019-02-22 00:32:03 20.7 12 18.9
003B5CE9 2019-02-22 00:21:06 20.7 12 19.1
003B5CE9 2019-02-22 00:10:07 20.7 12 19
003B5CE9 2019-02-21 23:59:09 20.7 12 19.2
003B5CE9 2019-02-21 23:48:12 20.7 12 19.2
003B5CE9 2019-02-21 23:37:15 20.8 12 19.3
003B5CE9 2019-02-21 23:26:18 20.8 12 19.3
003B5CE9 2019-02-21 23:15:21 20.8 12 18.9
003B5CE9 2019-02-21 23:04:23 20.8 12 19.2
003B5CE9 2019-02-21 22:53:27 20.8 12 19.2
003B5CE9 2019-02-21 22:42:30 20.8 12 19.2
003B5CE9 2019-02-21 22:31:33 20.8 12 18.9
003B5CE9 2019-02-21 22:20:36 20.8 12 18.9
003B5CE9 2019-02-21 22:09:39 20.8 12 19.2
003B5CE9 2019-02-21 21:58:42 20.8 12 19.1
003B5CE9 2019-02-21 21:47:46 20.9 12 19.2
003B5CE9 2019-02-21 21:36:49 20.9 12 19.1
003B5CE9 2019-02-21 21:25:54 20.9 12 19
003B5CE9 2019-02-21 21:14:54 20.9 12 18.9
003B5CE9 2019-02-21 21:03:56 20.9 12 18.4
003B5CE9 2019-02-21 20:52:59 20.9 12 18.4
003B5CE9 2019-02-21 20:42:02 20.9 12 18.1
003B5CE9 2019-02-21 20:31:06 21 12 18.3
003B5CE9 2019-02-21 20:20:10 21 12 18.1
003B5CE9 2019-02-21 20:09:13 21 12 18.1
003B5CE9 2019-02-21 19:58:16 21 12 18.2
003B5CE9 2019-02-21 19:47:19 21 12 18
003B5CE9 2019-02-21 19:36:23 21.1 12 17.9
003B5CE9 2019-02-21 19:25:26 21.1 12 19.7
003B5CE9 2019-02-21 19:14:28 21.1 12 21.2
003B5CE9 2019-02-21 19:03:31 21.1 12 22.3
003B5CE9 2019-02-21 18:52:35 21.2 12 23.2
003B5CE9 2019-02-21 18:41:41 21.2 12 23.9
003B5CE9 2019-02-21 18:30:42 21.3 12 24.5
003B5CE9 2019-02-21 18:19:45 21.3 12 24.4
003B5CE9 2019-02-21 18:08:48 21.3 12 24.4
003B5CE9 2019-02-21 17:57:51 21.4 12 24.4
003B5CE9 2019-02-21 17:46:54 21.4 13 24.4
003B5CE9 2019-02-21 17:35:58 21.4 13 24.3
003B5CE9 2019-02-21 17:24:59 21.4 13 24.3
003B5CE9 2019-02-21 17:14:02 21.4 13 24.2
003B5CE9 2019-02-21 17:03:04 21.4 13 24.2
003B5CE9 2019-02-21 16:52:07 21.3 13 24.2
003B5CE9 2019-02-21 16:41:12 21.2 13 24.2
003B5CE9 2019-02-21 16:30:14 21.2 13 24.2
003B5CE9 2019-02-21 16:19:17 21 13 24.2
003B5CE9 2019-02-21 16:08:20 20.9 13 24.1
003B5CE9 2019-02-21 15:57:24 20.9 12 24.1
003B5CE9 2019-02-21 15:46:29 20.8 12 24.1
003B5CE9 2019-02-21 15:34:57 20.8 12 24.1
003B5CE9 2019-02-21 15:02:24 20.7 12 24.1
003B5CE9 2019-02-21 14:29:50 20.7 13 24.1
003B5CE9 2019-02-21 13:57:17 20.6 13 23.4
003B5CE9 2019-02-21 13:24:44 20.6 13 22.6
003B5CE9 2019-02-21 12:52:14 20.6 13 21.5
003B5CE9 2019-02-21 12:19:38 20.6 13 20.1
003B5CE9 2019-02-21 11:47:05 20.6 14 18
003B5CE9 2019-02-21 11:14:31 20.6 14 13.9
003B5CE9 2019-02-21 10:42:01 20.6 14 14.2
003B5CE9 2019-02-21 10:09:27 20.5 14 14.4
003B5CE9 2019-02-21 09:36:52 20.5 15 15
003B5CE9 2019-02-21 09:04:18 20.5 15 15.3
003B5CE9 2019-02-21 08:31:46 20.5 15 15.2
003B5CE9 2019-02-21 07:59:12 20.5 16 15.3
003B5CE9 2019-02-21 07:26:37 20.6 16 15.4
003B5CE9 2019-02-21 06:54:07 20.6 16 15.3
003B5CE9 2019-02-21 06:21:30 20.6 16 15.3
003B5CE9 2019-02-21 05:48:57 20.6 17 15.1
003B5CE9 2019-02-21 05:16:28 20.6 17 15
003B5CE9 2019-02-21 04:43:53 20.6 17 15.3
003B5CE9 2019-02-21 04:11:19 20.6 17 15.3
003B5CE9 2019-02-21 03:38:47 20.6 17 15.4
003B5CE9 2019-02-21 03:06:14 20.6 17 15.2
003B5CE9 2019-02-21 02:33:39 20.6 17 18.6
003B5CE9 2019-02-21 02:01:04 20.7 17 18.6
003B5CE9 2019-02-21 01:28:29 20.7 18 18.6
003B5CE9 2019-02-21 00:55:54 20.6 18 18.6
003B5CE9 2019-02-21 00:23:20 20.7 18 20.5
003B5CE9 2019-02-20 23:50:47 20.7 18 20.4
003B5CE9 2019-02-20 23:18:14 20.7 18 21.7
003B5CE9 2019-02-20 22:45:40 20.7 18 21.8
003B5CE9 2019-02-20 22:13:04 20.7 18 22.8
003B5CE9 2019-02-20 21:40:30 20.7 18 23.6
003B5CE9 2019-02-20 21:07:56 20.7 19 23.6
003B5CE9 2019-02-20 20:35:21 20.7 19 23.8
003B5CE9 2019-02-20 20:02:47 20.8 19 23.8
003B5CE9 2019-02-20 19:30:12 20.8 19 23.8
003B5CE9 2019-02-20 18:57:35 20.8 19 24
003B5CE9 2019-02-20 18:25:00 20.8 19 24.1
003B5CE9 2019-02-20 17:52:26 20.8 19 24.2
003B5CE9 2019-02-20 17:19:52 20.9 20 24.3
003B5CE9 2019-02-20 16:47:20 20.9 21 24.5
003B5CE9 2019-02-20 16:14:47 20.8 21 24.6
003B5CE9 2019-02-20 15:42:08 20.8 21 24.7
003B5CE9 2019-02-20 15:09:32 20.8 21 24.7